FW0869 Weather Reports


Display with metric or nautical units.
time (UTC)temp
F
wind
direction
speed
MPH
gust
MPH
rain 1hr
in
rain 24hr
in
rain mn
in
humidity
%
barometer
mb
20240525234138 70 92 8.0 16.0 0.00 0.00 0.00 34 1007.0
20240525233942 70 82 8.0 16.0 0.00 0.00 0.00 34 1006.9
20240525233847 70 58 9.0 19.0 0.00 0.00 0.00 34 1006.9
20240525233637 70 72 10.0 19.0 0.00 0.00 0.00 34 1006.9
20240525233535 70 60 10.0 19.0 0.00 0.00 0.00 35 1006.9
20240525233433 70 29 9.0 19.0 0.00 0.00 0.00 33 1006.8
20240525233331 70 42 9.0 19.0 0.00 0.00 0.00 33 1006.9
20240525233232 70 50 9.0 19.0 0.00 0.00 0.00 33 1006.9
20240525233131 70 76 9.0 19.0 0.00 0.00 0.00 34 1007.0
20240525233027 70 78 9.0 19.0 0.00 0.00 0.00 34 1007.0
20240525232926 70 68 9.0 19.0 0.00 0.00 0.00 33 1006.9
20240525232826 70 28 9.0 16.0 0.00 0.00 0.00 33 1006.9
20240525232727 70 67 9.0 14.0 0.00 0.00 0.00 34 1006.9
20240525232625 70 5 9.0 14.0 0.00 0.00 0.00 32 1007.1
20240525232544 70 39 9.0 14.0 0.00 0.00 0.00 32 1007.1
20240525232540 70 38 8.0 14.0 0.00 0.00 0.00 32 1007.1
20240525232120 70 27 9.0 15.0 0.00 0.00 0.00 33 1007.2
20240525232025 70 37 9.0 15.0 0.00 0.00 0.00 33 1007.2
20240525232014 70 49 8.0 15.0 0.00 0.00 0.00 33 1007.2
20240525231914 70 36 8.0 15.0 0.00 0.00 0.00 34 1007.1
20240525231813 70 47 8.0 15.0 0.00 0.00 0.00 35 1007.2
20240525231713 70 51 8.0 15.0 0.00 0.00 0.00 35 1007.2
20240525231613 70 26 9.0 15.0 0.00 0.00 0.00 36 1007.1
20240525231526 70 19 9.0 18.0 0.00 0.00 0.00 36 1007.0
20240525231507 70 48 9.0 18.0 0.00 0.00 0.00 34 1007.0
20240525231409 70 50 10.0 18.0 0.00 0.00 0.00 34 1007.1
20240525231308 70 23 10.0 18.0 0.00 0.00 0.00 34 1007.0
20240525231214 70 55 10.0 18.0 0.00 0.00 0.00 35 1007.0
20240525231026 69 45 10.0 18.0 0.00 0.00 0.00 36 1007.1
20240525231008 69 0 10.0 18.0 0.00 0.00 0.00 36 1007.2
20240525230802 69 28 10.0 18.0 0.00 0.00 0.00 36 1007.3
20240525230708 69 26 10.0 18.0 0.00 0.00 0.00 35 1007.3
20240525230526 69 34 9.0 14.0 0.00 0.00 0.00 36 1007.2
20240525230457 69 24 9.0 14.0 0.00 0.00 0.00 37 1007.3
20240525230356 69 350 9.0 14.0 0.00 0.00 0.00 36 1007.3
20240525230256 69 44 9.0 14.0 0.00 0.00 0.00 35 1007.2
20240525230156 69 50 8.0 14.0 0.00 0.00 0.00 36 1007.2
20240525230055 69 49 8.0 14.0 0.00 0.00 0.00 37 1007.3
20240525230026 69 28 8.0 14.0 0.00 0.00 0.00 37 1007.3
20240525225953 69 38 8.0 14.0 0.00 0.00 0.00 37 1007.2
20240525225853 69 9 8.0 14.0 0.00 0.00 0.00 37 1007.1
20240525225846 68 74 8.0 14.0 0.00 0.00 0.00 37 1007.1
20240525225452 68 40 6.0 14.0 0.00 0.00 0.00 36 1006.9
20240525225406 68 63 6.0 12.0 0.00 0.00 0.00 36 1007.1
20240525225134 68 28 5.0 12.0 0.00 0.00 0.00 37 1007.0
20240525224949 68 53 5.0 12.0 0.00 0.00 0.00 37 1007.0
20240525224850 68 24 5.0 12.0 0.00 0.00 0.00 38 1007.1
20240525224750 67 44 6.0 12.0 0.00 0.00 0.00 37 1007.1
20240525224648 67 89 6.0 12.0 0.00 0.00 0.00 39 1007.1
20240525224601 67 134 7.0 12.0 0.00 0.00 0.00 37 1007.1
20240525224554 67 40 7.0 13.0 0.00 0.00 0.00 38 1007.1
20240525224348 67 40 7.0 13.0 0.00 0.00 0.00 37 1007.0
20240525224248 67 50 8.0 13.0 0.00 0.00 0.00 37 1007.1
20240525224146 67 51 8.0 13.0 0.00 0.00 0.00 38 1007.1
20240525224045 67 32 8.0 13.0 0.00 0.00 0.00 38 1007.1
20240525224024 67 5 8.0 13.0 0.00 0.00 0.00 38 1007.1
20240525223947 67 48 8.0 13.0 0.00 0.00 0.00 38 1007.1
20240525223846 67 49 8.0 13.0 0.00 0.00 0.00 37 1007.1
20240525223740 67 40 8.0 13.0 0.00 0.00 0.00 38 1007.1
20240525223641 67 37 8.0 13.0 0.00 0.00 0.00 37 1007.2
20240525223552 67 46 7.0 13.0 0.00 0.00 0.00 37 1007.2
20240525223545 68 51 7.0 12.0 0.00 0.00 0.00 37 1007.2
20240525223340 68 38 7.0 11.0 0.00 0.00 0.00 37 1007.2
20240525223235 68 47 6.0 10.0 0.00 0.00 0.00 34 1007.2
20240525223133 68 37 6.0 9.0 0.00 0.00 0.00 35 1007.2
20240525223119 68 55 6.0 11.0 0.00 0.00 0.00 36 1007.2
20240525222940 68 43 6.0 11.0 0.00 0.00 0.00 35 1007.2
20240525222729 68 29 7.0 12.0 0.00 0.00 0.00 35 1007.3
20240525222628 68 37 7.0 12.0 0.00 0.00 0.00 35 1007.3
20240525222528 68 36 7.0 12.0 0.00 0.00 0.00 37 1007.3
20240525222506 68 31 7.0 12.0 0.00 0.00 0.00 37 1007.3
20240525222428 68 5 7.0 12.0 0.00 0.00 0.00 36 1007.3
20240525222328 68 9 7.0 12.0 0.00 0.00 0.00 34 1007.3
20240525222221 68 22 7.0 12.0 0.00 0.00 0.00 34 1007.3
20240525222121 68 11 7.0 12.0 0.00 0.00 0.00 35 1007.5
20240525222035 68 12 7.0 12.0 0.00 0.00 0.00 35 1007.5
20240525222027 68 33 7.0 12.0 0.00 0.00 0.00 35 1007.5
20240525221822 69 355 7.0 12.0 0.00 0.00 0.00 36 1007.3
20240525221729 69 40 7.0 12.0 0.00 0.00 0.00 35 1007.5
20240525221455 69 342 7.0 12.0 0.00 0.00 0.00 35 1007.3
20240525221417 69 35 7.0 12.0 0.00 0.00 0.00 35 1007.3
20240525221315 69 331 7.0 12.0 0.00 0.00 0.00 35 1007.2
20240525221219 69 306 6.0 12.0 0.00 0.00 0.00 35 1007.3
20240525221012 69 0 6.0 12.0 0.00 0.00 0.00 35 1007.3
20240525220950 69 338 6.0 12.0 0.00 0.00 0.00 35 1007.3
20240525220912 69 37 6.0 12.0 0.00 0.00 0.00 35 1007.3
20240525220809 70 9 6.0 12.0 0.00 0.00 0.00 36 1007.3
20240525220704 70 355 6.0 11.0 0.00 0.00 0.00 36 1007.3
20240525220604 70 0 6.0 11.0 0.00 0.00 0.00 36 1007.3
20240525220503 70 0 6.0 11.0 0.00 0.00 0.00 36 1007.3
20240525220444 70 0 6.0 11.0 0.00 0.00 0.00 36 1007.3
20240525220404 70 50 6.0 11.0 0.00 0.00 0.00 36 1007.3
20240525220303 70 338 6.0 11.0 0.00 0.00 0.00 35 1007.3
20240525220157 70 340 6.0 11.0 0.00 0.00 0.00 36 1007.3
20240525220059 70 278 6.0 11.0 0.00 0.00 0.00 37 1007.2
20240525215957 70 0 6.0 11.0 0.00 0.00 0.00 36 1007.3
20240525215937 70 348 6.0 10.0 0.00 0.00 0.00 36 1007.3
20240525215858 70 289 6.0 10.0 0.00 0.00 0.00 36 1007.3
20240525215758 70 348 7.0 10.0 0.00 0.00 0.00 38 1007.2
20240525215652 70 33 7.0 13.0 0.00 0.00 0.00 40 1007.3
20240525215552 70 57 7.0 13.0 0.00 0.00 0.00 40 1007.3
20240525215504 70 60 7.0 13.0 0.00 0.00 0.00 38 1007.2
20240525215457 70 5 7.0 13.0 0.00 0.00 0.00 38 1007.2
20240525215251 69 80 8.0 13.0 0.00 0.00 0.00 37 1007.3
20240525215147 69 39 8.0 13.0 0.00 0.00 0.00 35 1007.3
20240525215046 69 68 8.0 13.0 0.00 0.00 0.00 36 1007.3
20240525214946 68 52 8.0 13.0 0.00 0.00 0.00 38 1007.3
20240525214925 68 38 8.0 13.0 0.00 0.00 0.00 38 1007.5
20240525214846 68 68 8.0 13.0 0.00 0.00 0.00 38 1007.5
20240525214745 67 32 8.0 13.0 0.00 0.00 0.00 37 1007.5
20240525214639 67 342 8.0 13.0 0.00 0.00 0.00 37 1007.5
20240525214540 67 5 8.0 15.0 0.00 0.00 0.00 40 1007.5
20240525214526 66 42 8.0 15.0 0.00 0.00 0.00 39 1007.6
20240525214340 66 5 8.0 15.0 0.00 0.00 0.00 42 1007.7
20240525214239 66 321 8.0 15.0 0.00 0.00 0.00 39 1007.8
20240525214135 65 344 8.0 15.0 0.00 0.00 0.00 39 1007.8
20240525214034 65 313 9.0 16.0 0.00 0.00 0.00 40 1007.8
20240525213934 65 317 9.0 21.0 0.00 0.00 0.00 40 1007.7
20240525213914 65 329 10.0 21.0 0.00 0.00 0.00 40 1007.7
20240525213834 65 300 10.0 22.0 0.00 0.00 0.00 40 1007.7
20240525213733 65 355 10.0 22.0 0.00 0.00 0.00 41 1007.7
20240525213627 65 277 11.0 23.0 0.00 0.00 0.00 40 1007.7
20240525213553 65 304 12.0 23.0 0.00 0.00 0.00 41 1007.7
20240525213440 65 325 13.0 23.0 0.00 0.00 0.00 40 1007.7
20240525213122 65 295 15.0 23.0 0.00 0.00 0.00 40 1007.7
20240525213021 65 296 16.0 26.0 0.00 0.00 0.00 40 1007.8
20240525212922 65 304 16.0 27.0 0.00 0.00 0.00 40 1007.8
20240525212910 65 276 16.0 27.0 0.00 0.00 0.00 40 1007.8
20240525212821 65 308 17.0 27.0 0.00 0.00 0.00 39 1007.9
20240525212721 65 284 17.0 27.0 0.00 0.00 0.00 39 1007.8
20240525212617 65 295 17.0 27.0 0.00 0.00 0.00 38 1007.8
20240525212536 65 310 18.0 28.0 0.00 0.00 0.00 38 1007.7
20240525212528 65 346 18.0 28.0 0.00 0.00 0.00 37 1007.7
20240525212215 66 317 20.0 35.0 0.00 0.00 0.00 37 1007.6
20240525212109 66 296 20.0 35.0 0.00 0.00 0.00 36 1007.7
20240525212021 67 312 19.0 35.0 0.00 0.00 0.00 36 1007.7
20240525212014 67 308 18.0 35.0 0.00 0.00 0.00 36 1007.6
20240525211817 67 316 17.0 35.0 0.00 0.00 0.00 36 1007.3
20240525211504 69 327 13.0 35.0 0.00 0.00 0.00 35 1007.5
20240525211409 69 337 12.0 35.0 0.00 0.00 0.00 33 1007.5
20240525211403 70 9 12.0 35.0 0.00 0.00 0.00 33 1007.5
20240525211303 70 321 11.0 33.0 0.00 0.00 0.00 34 1007.8
20240525211206 71 300 9.0 33.0 0.00 0.00 0.00 34 1007.5
20240525211017 71 24 7.0 16.0 0.00 0.00 0.00 35 1007.3
20240525210906 71 18 8.0 14.0 0.00 0.00 0.00 34 1007.3
20240525210657 71 332 7.0 13.0 0.00 0.00 0.00 35 1007.3
20240525210554 71 293 8.0 13.0 0.00 0.00 0.00 36 1007.2
20240525210516 71 26 8.0 14.0 0.00 0.00 0.00 36 1007.1
20240525210351 71 35 8.0 14.0 0.00 0.00 0.00 38 1007.0
20240525210251 70 345 8.0 14.0 0.00 0.00 0.00 36 1006.9
20240525210152 70 55 8.0 14.0 0.00 0.00 0.00 38 1006.9
20240525210046 70 20 8.0 14.0 0.00 0.00 0.00 37 1006.8
20240525205946 70 47 8.0 14.0 0.00 0.00 0.00 36 1006.8
20240525205909 70 38 8.0 14.0 0.00 0.00 0.00 35 1006.8
20240525205845 70 29 8.0 14.0 0.00 0.00 0.00 36 1006.8
20240525205747 70 55 8.0 14.0 0.00 0.00 0.00 35 1006.8
20240525205645 70 16 8.0 14.0 0.00 0.00 0.00 35 1006.8
20240525205541 70 50 7.0 14.0 0.00 0.00 0.00 36 1006.8
20240525205439 70 48 7.0 12.0 0.00 0.00 0.00 37 1006.8
20240525205409 70 42 7.0 12.0 0.00 0.00 0.00 38 1006.8
20240525205340 70 330 7.0 12.0 0.00 0.00 0.00 35 1006.8
20240525205240 70 55 6.0 11.0 0.00 0.00 0.00 36 1006.8
20240525205149 70 37 6.0 11.0 0.00 0.00 0.00 36 1006.8
20240525204909 70 28 5.0 11.0 0.00 0.00 0.00 35 1006.8
20240525204833 70 32 5.0 11.0 0.00 0.00 0.00 36 1006.8
20240525204733 70 43 5.0 10.0 0.00 0.00 0.00 38 1006.8
20240525204634 69 38 5.0 8.0 0.00 0.00 0.00 36 1006.8
20240525204535 69 71 5.0 9.0 0.00 0.00 0.00 37 1006.9
20240525204409 69 46 5.0 9.0 0.00 0.00 0.00 39 1007.0
20240525204328 69 26 5.0 10.0 0.00 0.00 0.00 39 1007.0
20240525204228 69 5 6.0 10.0 0.00 0.00 0.00 38 1006.9
20240525204129 69 5 6.0 10.0 0.00 0.00 0.00 37 1007.0
20240525203922 69 333 6.0 10.0 0.00 0.00 0.00 37 1007.0
20240525203909 69 337 6.0 10.0 0.00 0.00 0.00 37 1007.0
20240525203821 69 44 7.0 10.0 0.00 0.00 0.00 37 1007.1
20240525203723 69 56 7.0 10.0 0.00 0.00 0.00 37 1007.1
20240525203631 69 54 7.0 12.0 0.00 0.00 0.00 37 1007.1
20240525203516 69 22 8.0 14.0 0.00 0.00 0.00 36 1007.1
20240525203318 69 72 8.0 14.0 0.00 0.00 0.00 36 1007.0
20240525203220 69 69 8.0 14.0 0.00 0.00 0.00 37 1007.0
20240525203115 69 51 8.0 14.0 0.00 0.00 0.00 39 1006.9
20240525203013 69 57 9.0 14.0 0.00 0.00 0.00 38 1006.9
20240525202910 69 355 9.0 20.0 0.00 0.00 0.00 37 1006.9
20240525202810 69 20 9.0 20.0 0.00 0.00 0.00 36 1006.8
20240525202709 70 32 9.0 20.0 0.00 0.00 0.00 36 1006.8
20240525202609 70 28 9.0 20.0 0.00 0.00 0.00 36 1006.8
20240525202520 70 22 9.0 20.0 0.00 0.00 0.00 36 1006.8
20240525202512 70 0 9.0 20.0 0.00 0.00 0.00 36 1006.8
20240525202306 70 37 9.0 20.0 0.00 0.00 0.00 35 1006.8
20240525202207 70 5 9.0 20.0 0.00 0.00 0.00 35 1006.6
20240525202106 71 24 9.0 20.0 0.00 0.00 0.00 34 1006.8
20240525201908 71 342 8.0 15.0 0.00 0.00 0.00 35 1006.8
20240525201857 71 327 8.0 15.0 0.00 0.00 0.00 35 1006.8
20240525201757 71 0 8.0 15.0 0.00 0.00 0.00 36 1006.8
20240525201658 72 0 8.0 15.0 0.00 0.00 0.00 37 1006.9
20240525201557 72 315 8.0 15.0 0.00 0.00 0.00 35 1006.9
20240525201452 72 27 8.0 15.0 0.00 0.00 0.00 35 1007.0
20240525201405 73 276 8.0 15.0 0.00 0.00 0.00 35 1007.0
20240525201352 73 336 8.0 15.0 0.00 0.00 0.00 35 1007.0
20240525201258 73 350 8.0 15.0 0.00 0.00 0.00 34 1007.0
20240525201052 73 341 8.0 15.0 0.00 0.00 0.00 33 1007.1
20240525200905 74 322 7.0 14.0 0.00 0.00 0.00 35 1007.1
20240525200850 74 303 7.0 14.0 0.00 0.00 0.00 35 1007.1
20240525200650 74 0 7.0 13.0 0.00 0.00 0.00 36 1007.1
20240525200441 74 355 7.0 12.0 0.00 0.00 0.00 36 1007.2
20240525200359 74 34 7.0 12.0 0.00 0.00 0.00 36 1007.2
20240525200340 74 29 7.0 12.0 0.00 0.00 0.00 36 1007.2
20240525200240 73 300 6.0 12.0 0.00 0.00 0.00 37 1007.2
20240525200144 73 337 6.0 11.0 0.00 0.00 0.00 37 1007.1
20240525195959 73 339 6.0 13.0 0.00 0.00 0.00 35 1007.1
20240525195831 73 323 6.0 13.0 0.00 0.00 0.00 36 1007.1
20240525195731 73 32 6.0 13.0 0.00 0.00 0.00 38 1007.2
20240525195631 73 347 5.0 13.0 0.00 0.00 0.00 35 1007.2
20240525195532 73 51 5.0 13.0 0.00 0.00 0.00 35 1007.2
20240525195425 73 13 4.0 13.0 0.00 0.00 0.00 38 1007.2
20240525195348 72 18 4.0 13.0 0.00 0.00 0.00 36 1007.2
20240525195325 72 339 4.0 13.0 0.00 0.00 0.00 36 1007.2
20240525195232 72 294 3.0 13.0 0.00 0.00 0.00 35 1007.2
20240525195026 72 317 3.0 9.0 0.00 0.00 0.00 38 1007.2
20240525194920 71 319 3.0 9.0 0.00 0.00 0.00 39 1007.2
20240525194841 71 300 3.0 9.0 0.00 0.00 0.00 37 1007.2
20240525194820 71 316 3.0 9.0 0.00 0.00 0.00 37 1007.3
20240525194720 71 294 4.0 9.0 0.00 0.00 0.00 36 1007.2
20240525194620 71 87 4.0 9.0 0.00 0.00 0.00 35 1007.3
20240525194520 71 9 5.0 10.0 0.00 0.00 0.00 36 1007.3
20240525194414 70 40 5.0 10.0 0.00 0.00 0.00 37 1007.3
20240525194335 70 35 5.0 10.0 0.00 0.00 0.00 37 1007.3
20240525194330 70 306 6.0 10.0 0.00 0.00 0.00 39 1007.3
20240525194015 70 355 5.0 10.0 0.00 0.00 0.00 40 1007.3
20240525193829 70 71 6.0 10.0 0.00 0.00 0.00 38 1007.3
20240525193808 70 59 6.0 10.0 0.00 0.00 0.00 36 1007.3
20240525193707 70 63 6.0 10.0 0.00 0.00 0.00 37 1007.3
20240525193607 70 52 5.0 10.0 0.00 0.00 0.00 37 1007.3
20240525193507 70 51 5.0 9.0 0.00 0.00 0.00 38 1007.3
20240525193407 70 49 5.0 9.0 0.00 0.00 0.00 38 1007.3
20240525193323 70 22 5.0 9.0 0.00 0.00 0.00 38 1007.3
20240525193312 70 34 5.0 9.0 0.00 0.00 0.00 40 1007.3
20240525193104 69 65 5.0 9.0 0.00 0.00 0.00 37 1007.2
20240525193003 69 41 5.0 9.0 0.00 0.00 0.00 39 1007.2
20240525192817 69 29 5.0 10.0 0.00 0.00 0.00 38 1007.2
20240525192809 69 24 5.0 10.0 0.00 0.00 0.00 41 1007.2
20240525192456 68 19 6.0 10.0 0.00 0.00 0.00 38 1007.2
20240525192349 68 16 5.0 10.0 0.00 0.00 0.00 41 1007.3
20240525192310 68 12 5.0 10.0 0.00 0.00 0.00 41 1007.2
20240525192304 68 41 5.0 10.0 0.00 0.00 0.00 42 1007.2
20240525191949 68 19 5.0 10.0 0.00 0.00 0.00 40 1007.1
20240525191844 68 68 4.0 9.0 0.00 0.00 0.00 38 1007.0
20240525191812 68 34 4.0 9.0 0.00 0.00 0.00 38 1007.0
20240525191743 68 18 4.0 9.0 0.00 0.00 0.00 37 1007.0
20240525191644 68 46 4.0 9.0 0.00 0.00 0.00 39 1006.9
20240525191551 69 26 4.0 9.0 0.00 0.00 0.00 39 1007.0
20240525191340 69 335 4.0 8.0 0.00 0.00 0.00 38 1007.0
20240525191309 69 335 4.0 8.0 0.00 0.00 0.00 38 1007.1
20240525191244 69 30 4.0 8.0 0.00 0.00 0.00 40 1007.1
20240525191037 69 284 4.0 8.0 0.00 0.00 0.00 40 1007.1
20240525190937 69 0 4.0 8.0 0.00 0.00 0.00 38 1007.1
20240525190832 69 329 4.0 8.0 0.00 0.00 0.00 40 1007.1
20240525190807 69 335 4.0 8.0 0.00 0.00 0.00 40 1007.1
20240525190731 69 30 4.0 8.0 0.00 0.00 0.00 38 1007.1
20240525190631 68 36 4.0 8.0 0.00 0.00 0.00 38 1007.2
20240525190532 68 63 4.0 8.0 0.00 0.00 0.00 39 1007.2
20240525190432 68 328 4.0 8.0 0.00 0.00 0.00 43 1007.2
20240525190414 68 55 4.0 8.0 0.00 0.00 0.00 39 1007.2
20240525190226 68 5 4.0 8.0 0.00 0.00 0.00 44 1007.2
20240525190126 68 72 4.0 8.0 0.00 0.00 0.00 44 1007.2
20240525190025 67 73 4.0 8.0 0.00 0.00 0.00 42 1007.2
20240525185926 67 73 5.0 8.0 0.00 0.00 0.00 39 1007.3
20240525185806 67 28 5.0 8.0 0.00 0.00 0.00 40 1007.3
20240525185720 67 46 5.0 8.0 0.00 0.00 0.00 41 1007.3
20240525185626 67 355 5.0 8.0 0.00 0.00 0.00 41 1007.5
20240525185421 67 61 4.0 8.0 0.00 0.00 0.00 42 1007.6
20240525185314 67 317 5.0 8.0 0.00 0.00 0.00 42 1007.5
20240525185307 67 5 5.0 8.0 0.00 0.00 0.00 48 1007.5
20240525185213 67 38 5.0 8.0 0.00 0.00 0.00 48 1007.5
20240525185127 66 82 5.0 8.0 0.00 0.00 0.00 47 1007.5
20240525185015 66 329 5.0 8.0 0.00 0.00 0.00 43 1007.5
20240525184920 66 342 4.0 8.0 0.00 0.00 0.00 46 1007.5
20240525184913 65 349 4.0 8.0 0.00 0.00 0.00 43 1007.5
20240525184708 65 302 4.0 8.0 0.00 0.00 0.00 43 1007.5
20240525184609 65 336 4.0 9.0 0.00 0.00 0.00 42 1007.5
20240525184508 65 5 4.0 9.0 0.00 0.00 0.00 42 1007.5
20240525184414 65 5 4.0 9.0 0.00 0.00 0.00 42 1007.5
20240525184407 65 318 4.0 9.0 0.00 0.00 0.00 42 1007.6
20240525184209 65 290 5.0 11.0 0.00 0.00 0.00 42 1007.6
20240525184001 65 5 5.0 11.0 0.00 0.00 0.00 42 1007.5
20240525183902 65 19 5.0 11.0 0.00 0.00 0.00 43 1007.5
20240525183808 65 65 5.0 11.0 0.00 0.00 0.00 42 1007.6
20240525183755 65 65 5.0 11.0 0.00 0.00 0.00 42 1007.6
20240525183656 66 50 5.0 11.0 0.00 0.00 0.00 40 1007.5
20240525183603 66 25 6.0 11.0 0.00 0.00 0.00 41 1007.5
20240525183356 66 348 6.0 11.0 0.00 0.00 0.00 41 1007.6
20240525183308 66 316 6.0 11.0 0.00 0.00 0.00 40 1007.7
20240525183251 66 344 6.0 11.0 0.00 0.00 0.00 40 1007.7
20240525183151 66 344 6.0 11.0 0.00 0.00 0.00 41 1007.7
20240525183050 66 338 7.0 12.0 0.00 0.00 0.00 43 1007.7
20240525182950 66 288 7.0 12.0 0.00 0.00 0.00 41 1007.7
20240525182850 66 36 7.0 12.0 0.00 0.00 0.00 43 1007.7
20240525182808 66 17 7.0 12.0 0.00 0.00 0.00 42 1007.7
20240525182744 66 348 7.0 12.0 0.00 0.00 0.00 42 1007.7
20240525182644 66 39 7.0 12.0 0.00 0.00 0.00 40 1007.7
20240525182548 66 16 7.0 12.0 0.00 0.00 0.00 40 1007.8
20240525182411 67 339 7.0 12.0 0.00 0.00 0.00 41 1007.8
20240525182245 67 344 7.0 12.0 0.00 0.00 0.00 42 1007.8
20240525182038 67 5 6.0 12.0 0.00 0.00 0.00 42 1007.8
20240525181938 67 319 5.0 12.0 0.00 0.00 0.00 42 1007.8
20240525181837 67 322 5.0 12.0 0.00 0.00 0.00 41 1007.8
20240525181805 67 38 5.0 12.0 0.00 0.00 0.00 40 1007.8
20240525181737 67 15 5.0 12.0 0.00 0.00 0.00 40 1007.8
20240525181637 67 350 5.0 12.0 0.00 0.00 0.00 41 1007.8
20240525181535 67 344 5.0 13.0 0.00 0.00 0.00 40 1007.8
20240525181435 68 325 5.0 13.0 0.00 0.00 0.00 40 1007.7
20240525181413 68 16 5.0 13.0 0.00 0.00 0.00 40 1007.7
20240525181235 68 51 5.0 13.0 0.00 0.00 0.00 39 1007.7
20240525181133 68 51 5.0 13.0 0.00 0.00 0.00 38 1007.7
20240525181031 68 43 5.0 13.0 0.00 0.00 0.00 39 1007.7
20240525180931 68 37 5.0 13.0 0.00 0.00 0.00 41 1007.7
20240525180832 68 46 5.0 13.0 0.00 0.00 0.00 38 1007.7
20240525180806 68 43 5.0 13.0 0.00 0.00 0.00 38 1007.7
20240525180731 69 38 5.0 13.0 0.00 0.00 0.00 38 1007.7
20240525180631 69 44 5.0 13.0 0.00 0.00 0.00 38 1007.7
20240525180532 69 15 4.0 10.0 0.00 0.00 0.00 37 1007.7
20240525180431 70 5 4.0 9.0 0.00 0.00 0.00 38 1007.7
20240525180333 70 34 4.0 9.0 0.00 0.00 0.00 38 1007.7
20240525180305 70 50 4.0 9.0 0.00 0.00 0.00 38 1007.7
20240525180232 70 65 4.0 9.0 0.00 0.00 0.00 39 1007.7
20240525180132 70 71 4.0 9.0 0.00 0.00 0.00 38 1007.7
20240525180027 69 74 4.0 9.0 0.00 0.00 0.00 37 1007.7
20240525180020 69 84 4.0 9.0 0.00 0.00 0.00 39 1007.7
20240525175737 69 296 4.0 9.0 0.00 0.00 0.00 40 1007.7
20240525175422 69 300 5.0 9.0 0.00 0.00 0.00 37 1007.7
20240525175324 69 277 5.0 9.0 0.00 0.00 0.00 38 1007.7
20240525175259 69 273 5.0 9.0 0.00 0.00 0.00 38 1007.8
20240525175223 69 321 5.0 9.0 0.00 0.00 0.00 39 1007.8
20240525175122 69 41 6.0 10.0 0.00 0.00 0.00 40 1007.8
20240525175028 69 57 6.0 11.0 0.00 0.00 0.00 41 1007.7
20240525174821 68 5 6.0 13.0 0.00 0.00 0.00 38 1007.7
20240525174756 68 321 6.0 13.0 0.00 0.00 0.00 42 1007.7
20240525174721 68 13 6.0 13.0 0.00 0.00 0.00 38 1007.7
20240525174627 68 331 6.0 13.0 0.00 0.00 0.00 38 1007.8
20240525174420 68 10 7.0 13.0 0.00 0.00 0.00 42 1007.8
20240525174404 68 320 7.0 13.0 0.00 0.00 0.00 42 1007.8
20240525174222 68 355 7.0 13.0 0.00 0.00 0.00 41 1007.8
20240525174121 67 355 7.0 13.0 0.00 0.00 0.00 38 1007.8
20240525174021 67 38 7.0 13.0 0.00 0.00 0.00 42 1007.8
20240525173920 67 33 7.0 13.0 0.00 0.00 0.00 41 1007.8
20240525173814 67 314 7.0 13.0 0.00 0.00 0.00 41 1007.8
20240525173757 67 24 7.0 13.0 0.00 0.00 0.00 41 1007.8
20240525173714 67 9 7.0 13.0 0.00 0.00 0.00 41 1007.8
20240525173615 67 51 8.0 13.0 0.00 0.00 0.00 39 1007.8
20240525173516 67 15 7.0 14.0 0.00 0.00 0.00 40 1007.9
20240525173415 67 34 7.0 14.0 0.00 0.00 0.00 41 1007.8
20240525173400 67 49 7.0 14.0 0.00 0.00 0.00 42 1007.8
20240525173210 67 22 7.0 14.0 0.00 0.00 0.00 41 1007.8
20240525173111 67 61 7.0 14.0 0.00 0.00 0.00 45 1007.8
20240525173018 66 334 8.0 14.0 0.00 0.00 0.00 41 1007.8
20240525172821 66 48 8.0 14.0 0.00 0.00 0.00 44 1007.9
20240525172817 66 342 8.0 14.0 0.00 0.00 0.00 44 1007.9
20240525172615 66 355 8.0 14.0 0.00 0.00 0.00 42 1007.9
20240525172410 66 255 8.0 14.0 0.00 0.00 0.00 41 1008.2
20240525172310 66 331 8.0 14.0 0.00 0.00 0.00 40 1008.1
20240525172252 66 319 8.0 14.0 0.00 0.00 0.00 40 1008.1
20240525172208 66 296 8.0 14.0 0.00 0.00 0.00 40 1008.2
20240525172105 65 329 8.0 14.0 0.00 0.00 0.00 40 1008.2
20240525172005 65 355 8.0 14.0 0.00 0.00 0.00 41 1008.2
20240525171904 65 323 8.0 14.0 0.00 0.00 0.00 40 1008.1
20240525171806 65 315 8.0 14.0 0.00 0.00 0.00 40 1008.1
20240525171754 65 315 8.0 14.0 0.00 0.00 0.00 40 1008.1
20240525171705 65 325 8.0 14.0 0.00 0.00 0.00 41 1008.1
20240525171605 65 355 8.0 14.0 0.00 0.00 0.00 41 1008.1
20240525171504 66 348 8.0 14.0 0.00 0.00 0.00 40 1008.1
20240525171406 66 38 8.0 14.0 0.00 0.00 0.00 40 1008.2
20240525171305 66 9 8.0 14.0 0.00 0.00 0.00 40 1008.2
20240525171254 66 5 8.0 14.0 0.00 0.00 0.00 40 1008.2
20240525171205 66 355 8.0 14.0 0.00 0.00 0.00 40 1008.2
20240525171105 66 26 8.0 14.0 0.00 0.00 0.00 39 1008.2
20240525171004 67 315 8.0 14.0 0.00 0.00 0.00 39 1008.2
20240525170904 67 0 8.0 14.0 0.00 0.00 0.00 41 1008.2
20240525170856 67 311 8.0 14.0 0.00 0.00 0.00 37 1008.1
20240525170712 68 300 7.0 14.0 0.00 0.00 0.00 40 1008.1
20240525170505 68 25 7.0 15.0 0.00 0.00 0.00 41 1008.1
20240525170405 68 44 8.0 15.0 0.00 0.00 0.00 40 1008.1
20240525170304 68 355 7.0 15.0 0.00 0.00 0.00 39 1008.1
20240525170252 68 355 7.0 15.0 0.00 0.00 0.00 37 1008.1
20240525170201 68 278 7.0 15.0 0.00 0.00 0.00 38 1007.9
20240525170100 68 16 7.0 18.0 0.00 0.00 0.00 39 1007.9
20240525170011 68 311 7.0 18.0 0.00 0.00 0.00 39 1007.9
20240525165857 68 339 8.0 18.0 0.00 0.00 0.00 38 1007.9
20240525165701 68 329 8.0 18.0 0.00 0.00 0.00 39 1007.9
20240525165618 68 287 7.0 18.0 0.00 0.00 0.00 40 1007.8
20240525165300 68 5 7.0 18.0 0.00 0.00 0.00 38 1007.8
20240525165249 68 31 7.0 18.0 0.00 0.00 0.00 38 1007.8
20240525165201 68 24 7.0 18.0 0.00 0.00 0.00 40 1007.8
20240525165109 68 0 7.0 14.0 0.00 0.00 0.00 40 1007.9
20240525164909 68 286 7.0 14.0 0.00 0.00 0.00 39 1008.1
20240525164748 68 347 7.0 13.0 0.00 0.00 0.00 39 1008.1
20240525164701 67 42 8.0 13.0 0.00 0.00 0.00 42 1008.1
20240525164600 67 9 8.0 13.0 0.00 0.00 0.00 40 1008.1
20240525164501 67 350 8.0 13.0 0.00 0.00 0.00 39 1008.1
20240525164402 67 323 8.0 14.0 0.00 0.00 0.00 41 1008.2
20240525164257 67 325 8.0 14.0 0.00 0.00 0.00 40 1008.2
20240525164249 67 333 8.0 14.0 0.00 0.00 0.00 40 1008.2
20240525164205 67 49 8.0 14.0 0.00 0.00 0.00 41 1008.2
20240525163956 66 355 8.0 14.0 0.00 0.00 0.00 42 1008.1
20240525163857 66 342 8.0 14.0 0.00 0.00 0.00 41 1008.1
20240525163757 66 23 8.0 14.0 0.00 0.00 0.00 39 1008.1
20240525163750 66 331 8.0 14.0 0.00 0.00 0.00 39 1008.1
20240525163705 66 12 8.0 14.0 0.00 0.00 0.00 40 1008.1
20240525163457 66 19 7.0 14.0 0.00 0.00 0.00 41 1008.2
20240525163405 67 355 7.0 14.0 0.00 0.00 0.00 40 1008.2
20240525163248 67 36 7.0 14.0 0.00 0.00 0.00 42 1008.2
20240525163156 67 348 7.0 14.0 0.00 0.00 0.00 40 1008.2
20240525163056 67 24 8.0 14.0 0.00 0.00 0.00 43 1008.1
20240525162956 67 347 8.0 13.0 0.00 0.00 0.00 41 1008.2
20240525162856 67 5 8.0 13.0 0.00 0.00 0.00 41 1008.1
20240525162758 66 323 7.0 13.0 0.00 0.00 0.00 44 1008.2
20240525162749 66 329 7.0 13.0 0.00 0.00 0.00 44 1008.2
20240525162657 66 9 7.0 13.0 0.00 0.00 0.00 43 1008.2
20240525162557 66 53 7.0 13.0 0.00 0.00 0.00 42 1008.1
20240525162456 66 38 7.0 13.0 0.00 0.00 0.00 44 1008.3
20240525162353 65 5 7.0 13.0 0.00 0.00 0.00 45 1008.3
20240525162253 65 20 7.0 13.0 0.00 0.00 0.00 42 1008.2
20240525162249 65 18 7.0 13.0 0.00 0.00 0.00 42 1008.2
20240525162153 65 21 6.0 13.0 0.00 0.00 0.00 41 1008.2
20240525162053 65 22 6.0 13.0 0.00 0.00 0.00 42 1008.2
20240525161954 65 55 6.0 11.0 0.00 0.00 0.00 41 1008.2
20240525161853 66 54 6.0 11.0 0.00 0.00 0.00 42 1008.1
20240525161754 65 24 6.0 10.0 0.00 0.00 0.00 44 1008.2
20240525161748 65 30 6.0 10.0 0.00 0.00 0.00 44 1008.2
20240525161652 65 44 6.0 10.0 0.00 0.00 0.00 42 1008.3
20240525161552 65 335 6.0 10.0 0.00 0.00 0.00 42 1008.3
20240525161452 65 289 6.0 10.0 0.00 0.00 0.00 45 1008.3
20240525161401 65 348 6.0 10.0 0.00 0.00 0.00 44 1008.2
20240525161248 65 355 6.0 10.0 0.00 0.00 0.00 43 1008.3
20240525161154 65 322 6.0 10.0 0.00 0.00 0.00 42 1008.3
20240525161053 65 342 6.0 10.0 0.00 0.00 0.00 44 1008.2
20240525160952 65 60 7.0 12.0 0.00 0.00 0.00 43 1008.3
20240525160857 65 5 7.0 14.0 0.00 0.00 0.00 45 1008.3
20240525160849 65 30 7.0 14.0 0.00 0.00 0.00 44 1008.4
20240525160653 65 14 7.0 14.0 0.00 0.00 0.00 47 1008.4
20240525160553 64 342 7.0 14.0 0.00 0.00 0.00 46 1008.5
20240525160449 64 12 7.0 14.0 0.00 0.00 0.00 46 1008.5
20240525160348 64 68 7.0 14.0 0.00 0.00 0.00 47 1008.4
20240525160244 64 355 7.0 14.0 0.00 0.00 0.00 47 1008.4
20240525160149 63 346 7.0 14.0 0.00 0.00 0.00 45 1008.4
20240525160048 63 30 7.0 14.0 0.00 0.00 0.00 44 1008.3
20240525155948 64 15 7.0 14.0 0.00 0.00 0.00 44 1008.4
20240525155848 64 43 7.0 12.0 0.00 0.00 0.00 45 1008.4
20240525155750 63 26 7.0 12.0 0.00 0.00 0.00 45 1008.4
20240525155746 63 24 7.0 12.0 0.00 0.00 0.00 45 1008.4
20240525155650 63 17 7.0 12.0 0.00 0.00 0.00 43 1008.5
20240525155549 64 0 7.0 12.0 0.00 0.00 0.00 46 1008.5
20240525155455 63 355 7.0 12.0 0.00 0.00 0.00 45 1008.5
20240525155249 63 345 7.0 12.0 0.00 0.00 0.00 47 1008.5
20240525155245 63 0 7.0 12.0 0.00 0.00 0.00 47 1008.5
20240525155148 63 342 7.0 12.0 0.00 0.00 0.00 44 1008.6
20240525155049 64 29 7.0 12.0 0.00 0.00 0.00 42 1008.5
20240525154948 64 24 7.0 12.0 0.00 0.00 0.00 43 1008.6
20240525154849 64 5 7.0 12.0 0.00 0.00 0.00 44 1008.6
20240525154750 64 355 7.0 12.0 0.00 0.00 0.00 43 1008.5
20240525154745 64 5 7.0 12.0 0.00 0.00 0.00 43 1008.5
20240525154651 64 18 7.0 14.0 0.00 0.00 0.00 45 1008.6
20240525154445 64 350 8.0 14.0 0.00 0.00 0.00 46 1008.5
20240525154344 63 306 8.0 14.0 0.00 0.00 0.00 47 1008.5
20240525154252 63 9 8.0 14.0 0.00 0.00 0.00 46 1008.6
20240525154044 63 355 8.0 14.0 0.00 0.00 0.00 45 1008.6
20240525153944 63 34 8.0 14.0 0.00 0.00 0.00 44 1008.5
20240525153845 63 25 8.0 14.0 0.00 0.00 0.00 44 1008.5
20240525153745 63 11 8.0 14.0 0.00 0.00 0.00 44 1008.5
20240525153644 63 20 8.0 13.0 0.00 0.00 0.00 43 1008.5
20240525153544 63 40 8.0 13.0 0.00 0.00 0.00 43 1008.6
20240525153452 63 45 8.0 13.0 0.00 0.00 0.00 46 1008.5
20240525153245 63 43 8.0 13.0 0.00 0.00 0.00 47 1008.5
20240525153146 63 5 8.0 13.0 0.00 0.00 0.00 44 1008.5
20240525153044 63 30 8.0 13.0 0.00 0.00 0.00 45 1008.6
20240525152946 63 342 7.0 13.0 0.00 0.00 0.00 43 1008.6
20240525152844 63 311 7.0 13.0 0.00 0.00 0.00 45 1008.6
20240525152745 63 355 7.0 13.0 0.00 0.00 0.00 45 1008.6
20240525152640 63 303 7.0 13.0 0.00 0.00 0.00 44 1008.6
20240525152541 63 323 7.0 13.0 0.00 0.00 0.00 45 1008.8
20240525152440 63 319 7.0 14.0 0.00 0.00 0.00 44 1008.6
20240525152340 63 337 7.0 14.0 0.00 0.00 0.00 44 1008.8
20240525152244 63 355 7.0 14.0 0.00 0.00 0.00 44 1008.6
20240525152240 63 36 7.0 14.0 0.00 0.00 0.00 44 1008.6
20240525152147 62 41 7.0 14.0 0.00 0.00 0.00 45 1008.8
20240525152004 62 28 7.0 14.0 0.00 0.00 0.00 44 1008.9
20240525151851 62 336 7.0 14.0 0.00 0.00 0.00 44 1009.0
20240525151540 62 24 8.0 14.0 0.00 0.00 0.00 43 1008.9
20240525151440 62 22 8.0 13.0 0.00 0.00 0.00 43 1008.9
20240525151340 62 320 8.0 13.0 0.00 0.00 0.00 45 1008.9
20240525151245 62 41 8.0 15.0 0.00 0.00 0.00 44 1008.9
20240525151241 62 16 8.0 15.0 0.00 0.00 0.00 44 1008.9
20240525151140 61 344 8.0 15.0 0.00 0.00 0.00 44 1008.9
20240525151040 61 319 8.0 15.0 0.00 0.00 0.00 44 1008.9
20240525150940 61 42 8.0 15.0 0.00 0.00 0.00 45 1008.9
20240525150852 61 5 8.0 15.0 0.00 0.00 0.00 46 1008.9
20240525150735 61 0 8.0 15.0 0.00 0.00 0.00 46 1009.0
20240525150634 61 338 7.0 15.0 0.00 0.00 0.00 44 1009.0
20240525150535 61 22 7.0 15.0 0.00 0.00 0.00 45 1009.0
20240525150435 61 327 7.0 15.0 0.00 0.00 0.00 45 1009.0
20240525150333 61 339 7.0 15.0 0.00 0.00 0.00 45 1008.9
20240525150245 60 355 7.0 14.0 0.00 0.00 0.00 46 1008.9
20240525150230 60 355 7.0 14.0 0.00 0.00 0.00 45 1008.9
20240525150129 60 0 7.0 14.0 0.00 0.00 0.00 46 1008.9
20240525150028 60 11 7.0 13.0 0.00 0.00 0.00 45 1008.9
20240525145928 60 5 7.0 15.0 0.00 0.00 0.00 46 1008.9
20240525145835 60 17 8.0 15.0 0.00 0.00 0.00 45 1008.9
20240525145829 60 338 8.0 15.0 0.00 0.00 0.00 46 1008.9
20240525145624 60 350 7.0 15.0 0.00 0.00 0.00 46 1009.0
20240525145522 60 346 7.0 15.0 0.00 0.00 0.00 45 1009.1
20240525145436 60 351 7.0 15.0 0.00 0.00 0.00 46 1009.1
20240525145429 60 11 7.0 15.0 0.00 0.00 0.00 46 1009.2
20240525145124 60 306 8.0 15.0 0.00 0.00 0.00 45 1009.0
20240525144916 60 355 9.0 14.0 0.00 0.00 0.00 46 1009.0
20240525144815 59 5 9.0 14.0 0.00 0.00 0.00 47 1009.0
20240525144745 59 323 9.0 14.0 0.00 0.00 0.00 47 1009.0
20240525144717 59 15 9.0 14.0 0.00 0.00 0.00 47 1009.1
20240525144511 59 11 9.0 14.0 0.00 0.00 0.00 45 1009.0
20240525144459 59 355 8.0 14.0 0.00 0.00 0.00 45 1009.1
20240525144202 59 5 8.0 14.0 0.00 0.00 0.00 46 1009.1
20240525144102 59 71 8.0 14.0 0.00 0.00 0.00 46 1009.0
20240525144010 59 16 8.0 14.0 0.00 0.00 0.00 46 1009.0
20240525143802 59 61 7.0 14.0 0.00 0.00 0.00 47 1009.0
20240525143744 59 48 7.0 14.0 0.00 0.00 0.00 46 1009.0
20240525143656 59 318 8.0 14.0 0.00 0.00 0.00 46 1009.0
20240525143557 58 338 8.0 14.0 0.00 0.00 0.00 46 1009.0
20240525143455 58 57 8.0 14.0 0.00 0.00 0.00 47 1008.9
20240525143356 58 342 8.0 14.0 0.00 0.00 0.00 46 1008.9
20240525143254 58 355 8.0 13.0 0.00 0.00 0.00 46 1009.1
20240525143244 58 329 8.0 13.0 0.00 0.00 0.00 46 1009.1
20240525143149 58 327 8.0 13.0 0.00 0.00 0.00 48 1009.1
20240525143054 58 318 8.0 13.0 0.00 0.00 0.00 48 1009.1
20240525142848 58 5 8.0 13.0 0.00 0.00 0.00 47 1009.1
20240525142747 58 348 8.0 13.0 0.00 0.00 0.00 48 1009.1
20240525142639 58 301 8.0 13.0 0.00 0.00 0.00 46 1009.1
20240525142539 58 333 7.0 13.0 0.00 0.00 0.00 48 1009.2
20240525142439 58 355 7.0 13.0 0.00 0.00 0.00 47 1009.1
20240525142339 58 331 7.0 12.0 0.00 0.00 0.00 48 1009.1
20240525142240 58 323 7.0 14.0 0.00 0.00 0.00 48 1009.1
20240525142144 58 0 7.0 14.0 0.00 0.00 0.00 48 1009.2
20240525141941 58 338 7.0 14.0 0.00 0.00 0.00 47 1009.2
20240525141732 58 328 7.0 14.0 0.00 0.00 0.00 47 1009.2
20240525141635 58 26 7.0 14.0 0.00 0.00 0.00 49 1009.2
20240525141427 57 340 7.0 14.0 0.00 0.00 0.00 47 1009.2
20240525141327 57 18 7.0 14.0 0.00 0.00 0.00 47 1009.2
20240525141228 57 38 7.0 12.0 0.00 0.00 0.00 48 1009.2
20240525141121 57 5 7.0 12.0 0.00 0.00 0.00 48 1009.2
20240525141021 57 17 7.0 12.0 0.00 0.00 0.00 48 1009.2
20240525140928 57 75 8.0 13.0 0.00 0.00 0.00 48 1009.2
20240525140720 57 24 7.0 13.0 0.00 0.00 0.00 48 1009.2
20240525140616 57 0 7.0 13.0 0.00 0.00 0.00 48 1009.2
20240525140515 57 9 8.0 13.0 0.00 0.00 0.00 47 1009.1
20240525140433 58 322 8.0 13.0 0.00 0.00 0.00 48 1009.2
20240525140214 58 16 8.0 13.0 0.00 0.00 0.00 46 1009.2
20240525140108 58 5 7.0 13.0 0.00 0.00 0.00 47 1009.2
20240525140008 58 343 7.0 13.0 0.00 0.00 0.00 46 1009.2
20240525135910 58 298 7.0 13.0 0.00 0.00 0.00 47 1009.1
20240525135819 58 345 7.0 13.0 0.00 0.00 0.00 47 1009.1
20240525135813 58 18 7.0 13.0 0.00 0.00 0.00 47 1009.1
20240525135603 58 344 7.0 12.0 0.00 0.00 0.00 47 1009.1
20240525135503 58 9 7.0 12.0 0.00 0.00 0.00 46 1009.2
20240525135403 58 32 7.0 12.0 0.00 0.00 0.00 45 1009.2
20240525135304 58 348 7.0 12.0 0.00 0.00 0.00 46 1009.2
20240525135214 58 39 7.0 12.0 0.00 0.00 0.00 47 1009.2
20240525135202 58 12 7.0 12.0 0.00 0.00 0.00 47 1009.2
20240525135057 58 46 7.0 12.0 0.00 0.00 0.00 45 1009.2
20240525134956 58 331 7.0 12.0 0.00 0.00 0.00 45 1009.2
20240525134859 58 24 7.0 12.0 0.00 0.00 0.00 45 1009.1
20240525134807 59 40 7.0 12.0 0.00 0.00 0.00 45 1009.1
20240525134801 59 17 7.0 12.0 0.00 0.00 0.00 45 1009.1
20240525134551 59 9 7.0 12.0 0.00 0.00 0.00 44 1009.2
20240525134451 59 347 7.0 12.0 0.00 0.00 0.00 45 1009.4
20240525134351 59 5 7.0 13.0 0.00 0.00 0.00 45 1009.4
20240525134250 59 319 7.0 13.0 0.00 0.00 0.00 46 1009.2
20240525134211 59 331 6.0 13.0 0.00 0.00 0.00 47 1009.2
20240525134150 59 5 6.0 13.0 0.00 0.00 0.00 47 1009.2
20240525134045 58 36 6.0 13.0 0.00 0.00 0.00 45 1009.2
20240525133945 58 36 7.0 13.0 0.00 0.00 0.00 46 1009.2
20240525133845 58 5 7.0 13.0 0.00 0.00 0.00 46 1009.2
20240525133744 58 338 7.0 13.0 0.00 0.00 0.00 45 1009.2
20240525133711 58 13 6.0 13.0 0.00 0.00 0.00 45 1009.4
20240525133645 58 344 6.0 13.0 0.00 0.00 0.00 46 1009.4
20240525133547 58 46 6.0 13.0 0.00 0.00 0.00 46 1009.4
20240525133341 58 30 5.0 12.0 0.00 0.00 0.00 46 1009.2
20240525133241 58 11 5.0 12.0 0.00 0.00 0.00 47 1009.2
20240525133208 58 13 5.0 12.0 0.00 0.00 0.00 47 1009.2
20240525133138 58 344 5.0 12.0 0.00 0.00 0.00 47 1009.2
20240525133035 58 34 5.0 12.0 0.00 0.00 0.00 46 1009.2
20240525132933 58 355 5.0 12.0 0.00 0.00 0.00 47 1009.2
20240525132851 58 348 4.0 9.0 0.00 0.00 0.00 47 1009.2
20240525132737 58 313 4.0 9.0 0.00 0.00 0.00 47 1009.4
20240525132535 57 345 4.0 9.0 0.00 0.00 0.00 48 1009.2
20240525132326 57 326 4.0 8.0 0.00 0.00 0.00 50 1009.2
20240525132232 57 23 4.0 7.0 0.00 0.00 0.00 50 1009.2
20240525132035 56 5 4.0 7.0 0.00 0.00 0.00 51 1009.2
20240525132029 56 5 4.0 7.0 0.00 0.00 0.00 52 1009.1
20240525131620 55 306 4.0 6.0 0.00 0.00 0.00 52 1009.1
20240525131515 55 339 3.0 6.0 0.00 0.00 0.00 53 1009.2
20240525131415 54 321 3.0 6.0 0.00 0.00 0.00 53 1009.1
20240525131315 54 355 3.0 6.0 0.00 0.00 0.00 53 1009.1
20240525131209 54 351 3.0 6.0 0.00 0.00 0.00 55 1009.1
20240525131115 53 0 3.0 5.0 0.00 0.00 0.00 54 1009.1
20240525131011 53 328 3.0 5.0 0.00 0.00 0.00 54 1009.1
20240525130928 53 328 3.0 5.0 0.00 0.00 0.00 53 1009.1
20240525130813 53 328 2.0 5.0 0.00 0.00 0.00 53 1009.1
20240525130608 53 318 2.0 5.0 0.00 0.00 0.00 52 1009.1
20240525130511 53 317 2.0 5.0 0.00 0.00 0.00 54 1009.1
20240525130315 52 305 2.0 5.0 0.00 0.00 0.00 56 1009.1
20240525130203 52 332 2.0 5.0 0.00 0.00 0.00 55 1009.1
20240525130110 51 311 2.0 5.0 0.00 0.00 0.00 56 1009.1
20240525130004 51 311 2.0 5.0 0.00 0.00 0.00 57 1009.1
20240525125903 51 311 2.0 5.0 0.00 0.00 0.00 57 1009.1
20240525125801 51 311 3.0 5.0 0.00 0.00 0.00 57 1009.1
20240525125708 50 311 3.0 5.0 0.00 0.00 0.00 57 1009.1
20240525125700 50 311 3.0 5.0 0.00 0.00 0.00 58 1009.1
20240525125557 50 311 3.0 5.0 0.00 0.00 0.00 58 1009.1
20240525125452 50 311 3.0 5.0 0.00 0.00 0.00 58 1009.1
20240525125351 49 311 3.0 5.0 0.00 0.00 0.00 59 1009.1
20240525125251 49 311 3.0 5.0 0.00 0.00 0.00 59 1009.1
20240525125208 49 311 2.0 5.0 0.00 0.00 0.00 59 1009.1
20240525125151 49 311 2.0 5.0 0.00 0.00 0.00 59 1009.1
20240525125051 49 311 2.0 5.0 0.00 0.00 0.00 59 1009.1
20240525124947 49 311 2.0 5.0 0.00 0.00 0.00 60 1009.1
20240525124844 49 311 2.0 4.0 0.00 0.00 0.00 60 1009.1
20240525124745 48 311 2.0 5.0 0.00 0.00 0.00 60 1009.1
20240525124708 48 311 2.0 5.0 0.00 0.00 0.00 60 1009.1
20240525124656 48 311 2.0 5.0 0.00 0.00 0.00 60 1009.1
20240525124339 48 311 3.0 5.0 0.00 0.00 0.00 61 1009.0
20240525124240 47 311 3.0 5.0 0.00 0.00 0.00 61 1009.1
20240525124206 47 311 3.0 5.0 0.00 0.00 0.00 61 1009.1
20240525124140 47 311 3.0 5.0 0.00 0.00 0.00 61 1009.1
20240525124038 47 311 3.0 5.0 0.00 0.00 0.00 62 1009.1
20240525123935 47 311 3.0 5.0 0.00 0.00 0.00 62 1009.1
20240525123835 47 311 3.0 5.0 0.00 0.00 0.00 62 1009.0
20240525123705 46 311 3.0 5.0 0.00 0.00 0.00 63 1009.0
20240525123635 46 311 3.0 5.0 0.00 0.00 0.00 63 1009.0
20240525123531 46 311 3.0 5.0 0.00 0.00 0.00 63 1009.0
20240525123426 46 311 3.0 5.0 0.00 0.00 0.00 63 1009.0
20240525123326 46 311 3.0 5.0 0.00 0.00 0.00 63 1009.0
20240525123312 46 311 3.0 5.0 0.00 0.00 0.00 63 1008.9
20240525123131 46 311 3.0 5.0 0.00 0.00 0.00 62 1008.9
20240525122926 45 311 3.0 5.0 0.00 0.00 0.00 62 1009.0
20240525122804 45 311 3.0 5.0 0.00 0.00 0.00 63 1009.1
20240525122620 45 311 3.0 5.0 0.00 0.00 0.00 63 1009.1
20240525122521 45 295 3.0 5.0 0.00 0.00 0.00 63 1009.1
20240525122312 44 338 3.0 5.0 0.00 0.00 0.00 64 1009.0
20240525122213 44 338 3.0 5.0 0.00 0.00 0.00 64 1009.0
20240525122152 44 338 3.0 5.0 0.00 0.00 0.00 64 1009.0
20240525122113 44 338 3.0 5.0 0.00 0.00 0.00 64 1009.0
20240525122012 44 338 3.0 5.0 0.00 0.00 0.00 64 1009.0
20240525121915 44 338 3.0 5.0 0.00 0.00 0.00 64 1009.0
20240525121709 44 338 2.0 5.0 0.00 0.00 0.00 65 1009.0
20240525121646 44 338 2.0 4.0 0.00 0.00 0.00 65 1009.0
20240525121615 44 338 2.0 4.0 0.00 0.00 0.00 65 1009.0
20240525121303 44 338 2.0 4.0 0.00 0.00 0.00 65 1009.0
20240525121139 44 338 2.0 4.0 0.00 0.00 0.00 65 1009.1
20240525121101 44 338 2.0 4.0 0.00 0.00 0.00 65 1009.0
20240525121002 44 338 2.0 4.0 0.00 0.00 0.00 65 1009.0
20240525120854 44 338 2.0 4.0 0.00 0.00 0.00 65 1009.0
20240525120803 44 338 2.0 4.0 0.00 0.00 0.00 66 1008.9
20240525120634 44 338 2.0 4.0 0.00 0.00 0.00 65 1009.0
20240525120554 44 309 2.0 4.0 0.00 0.00 0.00 65 1009.0
20240525120454 44 251 2.0 4.0 0.00 0.00 0.00 65 1009.1
20240525120352 44 251 1.0 4.0 0.00 0.00 0.00 65 1009.0
20240525120251 44 251 1.0 4.0 0.00 0.00 0.00 65 1009.0
20240525120127 44 251 1.0 4.0 0.00 0.00 0.00 65 1009.0
20240525120051 44 251 1.0 4.0 0.00 0.00 0.00 65 1009.0
20240525115948 44 251 1.0 4.0 0.00 0.00 0.00 65 1009.0
20240525115845 44 251 1.0 4.0 0.00 0.00 0.00 65 1009.0
20240525115745 44 251 0.0 3.0 0.00 0.00 0.00 65 1009.0
20240525115622 44 251 1.0 4.0 0.00 0.00 0.00 65 1008.9
20240525115545 44 251 1.0 4.0 0.00 0.00 0.00 64 1008.9
20240525115443 44 251 1.0 4.0 0.00 0.00 0.00 64 1009.0
20240525115343 44 251 1.0 4.0 0.00 0.00 0.00 64 1009.0
20240525115240 44 251 1.0 4.0 0.00 0.00 0.00 64 1008.9
20240525115222 44 251 1.0 4.0 0.00 0.00 0.00 64 1008.9
20240525115040 44 250 1.0 4.0 0.00 0.00 0.00 64 1008.9
20240525114938 44 251 1.0 4.0 0.00 0.00 0.00 63 1008.9
20240525114837 44 251 1.0 4.0 0.00 0.00 0.00 63 1009.0
20240525114735 44 251 1.0 4.0 0.00 0.00 0.00 63 1009.0
20240525114644 44 251 1.0 4.0 0.00 0.00 0.00 63 1009.0
20240525114226 43 251 0.0 2.0 0.00 0.00 0.00 63 1009.0
20240525114125 43 251 0.0 2.0 0.00 0.00 0.00 63 1009.0
20240525114104 43 251 1.0 2.0 0.00 0.00 0.00 63 1009.0
20240525114025 43 251 1.0 2.0 0.00 0.00 0.00 63 1009.0
20240525113927 43 251 0.0 2.0 0.00 0.00 0.00 63 1009.0
20240525113721 44 251 0.0 2.0 0.00 0.00 0.00 63 1009.0
20240525113619 44 251 0.0 2.0 0.00 0.00 0.00 63 1009.0
20240525113559 44 251 0.0 2.0 0.00 0.00 0.00 63 1009.0
20240525113520 44 251 1.0 2.0 0.00 0.00 0.00 62 1008.9
20240525113427 44 251 1.0 2.0 0.00 0.00 0.00 62 1008.9
20240525113233 44 251 1.0 2.0 0.00 0.00 0.00 62 1009.0
20240525113226 44 251 1.0 2.0 0.00 0.00 0.00 61 1009.1
20240525112912 44 251 1.0 4.0 0.00 0.00 0.00 61 1009.0
20240525112817 44 251 1.0 4.0 0.00 0.00 0.00 61 1009.1
20240525112621 44 251 1.0 4.0 0.00 0.00 0.00 61 1009.1
20240525112613 44 251 1.0 4.0 0.00 0.00 0.00 61 1009.1
20240525112406 44 251 1.0 4.0 0.00 0.00 0.00 61 1009.1
20240525112311 44 251 1.0 4.0 0.00 0.00 0.00 61 1009.1
20240525112105 44 251 1.0 4.0 0.00 0.00 0.00 61 1009.1
20240525112040 44 251 1.0 4.0 0.00 0.00 0.00 61 1009.1
20240525112003 44 251 1.0 4.0 0.00 0.00 0.00 61 1009.1
20240525111900 44 251 2.0 4.0 0.00 0.00 0.00 61 1009.1
20240525111802 44 251 2.0 4.0 0.00 0.00 0.00 61 1009.1
20240525111747 44 251 2.0 4.0 0.00 0.00 0.00 61 1009.1
20240525111502 44 251 2.0 5.0 0.00 0.00 0.00 61 1009.1
20240525111300 44 251 3.0 5.0 0.00 0.00 0.00 61 1009.1
20240525111055 44 251 3.0 5.0 0.00 0.00 0.00 61 1009.2
20240525110848 44 251 3.0 5.0 0.00 0.00 0.00 62 1009.1
20240525110748 44 251 3.0 5.0 0.00 0.00 0.00 62 1009.2
20240525110647 44 251 3.0 5.0 0.00 0.00 0.00 62 1009.2
20240525110548 44 246 3.0 5.0 0.00 0.00 0.00 63 1009.2
20240525110522 44 240 3.0 5.0 0.00 0.00 0.00 63 1009.2
20240525110445 44 250 3.0 5.0 0.00 0.00 0.00 63 1009.2
20240525110349 44 265 3.0 5.0 0.00 0.00 0.00 63 1009.1
20240525110141 44 213 3.0 5.0 0.00 0.00 0.00 62 1009.2
20240525110015 44 208 3.0 5.0 0.00 0.00 0.00 62 1009.2
20240525105938 44 208 3.0 5.0 0.00 0.00 0.00 62 1009.2
20240525105836 44 208 3.0 5.0 0.00 0.00 0.00 62 1009.2
20240525105733 44 208 3.0 5.0 0.00 0.00 0.00 62 1009.2
20240525105725 44 208 3.0 5.0 0.00 0.00 0.00 62 1009.2
20240525105430 44 209 3.0 5.0 0.00 0.00 0.00 62 1009.4
20240525105333 44 209 3.0 5.0 0.00 0.00 0.00 62 1009.4
20240525105126 44 236 2.0 5.0 0.00 0.00 0.00 62 1009.2
20240525105110 44 236 3.0 5.0 0.00 0.00 0.00 62 1009.2
20240525104925 44 243 3.0 5.0 0.00 0.00 0.00 61 1009.4
20240525104832 44 195 3.0 5.0 0.00 0.00 0.00 61 1009.4
20240525104518 44 183 3.0 4.0 0.00 0.00 0.00 61 1009.4
20240525104458 44 183 3.0 4.0 0.00 0.00 0.00 61 1009.4
20240525104419 44 183 3.0 4.0 0.00 0.00 0.00 62 1009.4
20240525104318 44 183 3.0 4.0 0.00 0.00 0.00 63 1009.4
20240525104218 45 183 2.0 4.0 0.00 0.00 0.00 62 1009.5
20240525104116 45 183 2.0 4.0 0.00 0.00 0.00 60 1009.4
20240525104017 45 183 2.0 4.0 0.00 0.00 0.00 60 1009.4
20240525103952 45 183 2.0 4.0 0.00 0.00 0.00 60 1009.4
20240525103915 45 183 2.0 4.0 0.00 0.00 0.00 60 1009.4
20240525103812 45 183 1.0 4.0 0.00 0.00 0.00 60 1009.4
20240525103727 45 183 1.0 4.0 0.00 0.00 0.00 60 1009.4
20240525103447 45 207 1.0 4.0 0.00 0.00 0.00 60 1009.4
20240525103415 45 232 0.0 2.0 0.00 0.00 0.00 61 1009.4
20240525103208 45 232 0.0 4.0 0.00 0.00 0.00 60 1009.4
20240525103105 45 232 0.0 4.0 0.00 0.00 0.00 59 1009.2
20240525103006 45 232 1.0 4.0 0.00 0.00 0.00 59 1009.4
20240525102940 45 232 1.0 4.0 0.00 0.00 0.00 59 1009.4
20240525102908 45 232 1.0 4.0 0.00 0.00 0.00 58 1009.4
20240525102701 45 232 1.0 4.0 0.00 0.00 0.00 58 1009.4
20240525102558 45 232 1.0 4.0 0.00 0.00 0.00 58 1009.4
20240525102434 45 232 1.0 4.0 0.00 0.00 0.00 58 1009.5
20240525102420 45 232 1.0 4.0 0.00 0.00 0.00 58 1009.4
20240525101927 45 232 1.0 4.0 0.00 0.00 0.00 58 1009.4
20240525101856 45 232 1.0 4.0 0.00 0.00 0.00 58 1009.4
20240525101648 46 232 1.0 4.0 0.00 0.00 0.00 58 1009.5
20240525101547 46 232 2.0 4.0 0.00 0.00 0.00 58 1009.6
20240525101446 46 232 2.0 4.0 0.00 0.00 0.00 58 1009.5
20240525101423 46 232 2.0 4.0 0.00 0.00 0.00 58 1009.6
20240525101344 46 232 2.0 4.0 0.00 0.00 0.00 58 1009.6
20240525101242 46 232 2.0 4.0 0.00 0.00 0.00 58 1009.6
20240525101149 46 232 2.0 4.0 0.00 0.00 0.00 57 1009.6
20240525100915 46 232 2.0 5.0 0.00 0.00 0.00 57 1009.5
20240525100844 46 232 2.0 5.0 0.00 0.00 0.00 57 1009.5
20240525100637 46 232 2.0 5.0 0.00 0.00 0.00 57 1009.4
20240525100535 46 232 2.0 5.0 0.00 0.00 0.00 58 1009.5
20240525100435 46 232 2.0 5.0 0.00 0.00 0.00 58 1009.5
20240525100409 46 232 2.0 5.0 0.00 0.00 0.00 58 1009.4
20240525100332 46 232 2.0 5.0 0.00 0.00 0.00 58 1009.4
20240525100230 46 232 1.0 5.0 0.00 0.00 0.00 58 1009.4
20240525100124 46 232 1.0 5.0 0.00 0.00 0.00 58 1009.4
20240525100032 46 232 1.0 4.0 0.00 0.00 0.00 58 1009.4
20240525095904 46 232 2.0 4.0 0.00 0.00 0.00 58 1009.4
20240525095824 46 232 2.0 5.0 0.00 0.00 0.00 58 1009.4
20240525095726 46 232 2.0 5.0 0.00 0.00 0.00 58 1009.4
20240525095620 47 232 2.0 5.0 0.00 0.00 0.00 58 1009.4
20240525095520 47 232 3.0 5.0 0.00 0.00 0.00 58 1009.5
20240525095505 47 232 3.0 5.0 0.00 0.00 0.00 58 1009.4
20240525095319 47 232 3.0 5.0 0.00 0.00 0.00 58 1009.4
20240525095218 47 232 3.0 5.0 0.00 0.00 0.00 58 1009.4
20240525095120 47 232 3.0 5.0 0.00 0.00 0.00 58 1009.4
20240525095017 47 232 3.0 5.0 0.00 0.00 0.00 58 1009.4
20240525094958 47 232 3.0 5.0 0.00 0.00 0.00 58 1009.5
20240525094814 47 229 3.0 5.0 0.00 0.00 0.00 58 1009.4
20240525094712 47 241 3.0 5.0 0.00 0.00 0.00 58 1009.5
20240525094607 47 228 3.0 5.0 0.00 0.00 0.00 58 1009.5
20240525094507 47 227 3.0 5.0 0.00 0.00 0.00 58 1009.5
20240525094452 47 229 3.0 5.0 0.00 0.00 0.00 57 1009.5
20240525094315 47 227 3.0 5.0 0.00 0.00 0.00 57 1009.6
20240525094103 47 234 3.0 5.0 0.00 0.00 0.00 57 1009.6
20240525094000 47 250 3.0 5.0 0.00 0.00 0.00 56 1009.6
20240525093912 47 237 3.0 5.0 0.00 0.00 0.00 56 1009.6
20240525093904 47 247 3.0 5.0 0.00 0.00 0.00 56 1009.6
20240525093700 47 217 2.0 5.0 0.00 0.00 0.00 55 1009.6
20240525093558 47 219 2.0 5.0 0.00 0.00 0.00 55 1009.6
20240525093458 47 205 2.0 5.0 0.00 0.00 0.00 56 1009.6
20240525093333 47 204 2.0 5.0 0.00 0.00 0.00 55 1009.6
20240525093301 47 204 2.0 5.0 0.00 0.00 0.00 55 1009.6
20240525093048 47 265 2.0 4.0 0.00 0.00 0.00 55 1009.6
20240525092956 47 265 2.0 4.0 0.00 0.00 0.00 55 1009.6
20240525092828 47 265 2.0 4.0 0.00 0.00 0.00 54 1009.6
20240525092756 47 265 2.0 4.0 0.00 0.00 0.00 54 1009.7
20240525092544 48 265 2.0 4.0 0.00 0.00 0.00 55 1009.7
20240525092443 48 265 2.0 4.0 0.00 0.00 0.00 55 1009.7
20240525092345 48 265 2.0 4.0 0.00 0.00 0.00 55 1009.7
20240525092321 48 265 2.0 4.0 0.00 0.00 0.00 56 1009.8
20240525092250 48 261 2.0 4.0 0.00 0.00 0.00 56 1009.8
20240525092037 48 244 2.0 4.0 0.00 0.00 0.00 60 1009.8
20240525091943 48 217 2.0 6.0 0.00 0.00 0.00 62 1009.8
20240525091817 48 217 2.0 6.0 0.00 0.00 0.00 61 1009.8
20240525091736 48 223 2.0 6.0 0.00 0.00 0.00 61 1009.8
20240525091636 48 223 2.0 6.0 0.00 0.00 0.00 54 1009.8
20240525091537 48 223 2.0 6.0 0.00 0.00 0.00 53 1009.8
20240525091435 48 228 2.0 6.0 0.00 0.00 0.00 53 1009.8
20240525091335 48 227 3.0 6.0 0.00 0.00 0.00 53 1009.8
20240525091310 49 227 3.0 6.0 0.00 0.00 0.00 52 1009.8
20240525091233 49 228 3.0 6.0 0.00 0.00 0.00 52 1009.8
20240525091131 49 228 3.0 6.0 0.00 0.00 0.00 52 1009.8
20240525090926 49 223 3.0 6.0 0.00 0.00 0.00 52 1009.8
20240525090804 49 207 3.0 5.0 0.00 0.00 0.00 51 1009.7
20240525090725 49 211 3.0 5.0 0.00 0.00 0.00 51 1009.7
20240525090625 49 237 3.0 5.0 0.00 0.00 0.00 51 1009.7
20240525090520 49 225 3.0 5.0 0.00 0.00 0.00 51 1009.7
20240525090418 49 228 2.0 5.0 0.00 0.00 0.00 51 1009.8
20240525090319 49 239 2.0 5.0 0.00 0.00 0.00 51 1009.8
20240525090258 49 230 2.0 5.0 0.00 0.00 0.00 51 1009.8
20240525090225 49 225 2.0 5.0 0.00 0.00 0.00 51 1009.8
20240525090017 49 227 2.0 5.0 0.00 0.00 0.00 51 1010.0
20240525085917 50 234 2.0 5.0 0.00 0.00 0.00 50 1009.8
20240525085827 50 254 2.0 4.0 0.00 0.00 0.00 50 1010.0
20240525085819 50 254 2.0 4.0 0.00 0.00 0.00 50 1010.0
20240525085612 50 254 2.0 4.0 0.00 0.00 0.00 50 1010.0
20240525085508 50 254 2.0 4.0 0.00 0.00 0.00 50 1010.0
20240525085406 50 254 2.0 4.0 0.00 0.00 0.00 50 1010.0
20240525085308 50 254 2.0 4.0 0.00 0.00 0.00 50 1010.0
20240525085247 51 254 2.0 4.0 0.00 0.00 0.00 50 1010.0
20240525085206 51 254 2.0 4.0 0.00 0.00 0.00 49 1010.0
20240525085106 51 254 2.0 4.0 0.00 0.00 0.00 49 1009.8
20240525085002 51 254 2.0 4.0 0.00 0.00 0.00 49 1010.0
20240525084903 51 254 2.0 4.0 0.00 0.00 0.00 49 1010.0
20240525084741 51 254 1.0 4.0 0.00 0.00 0.00 49 1010.1
20240525084702 51 254 1.0 4.0 0.00 0.00 0.00 49 1010.0
20240525084601 51 254 1.0 4.0 0.00 0.00 0.00 49 1010.0
20240525084355 51 254 1.0 4.0 0.00 0.00 0.00 49 1010.0
20240525084243 52 254 2.0 4.0 0.00 0.00 0.00 49 1010.0
20240525084154 52 254 2.0 4.0 0.00 0.00 0.00 49 1010.1
20240525084054 52 254 2.0 5.0 0.00 0.00 0.00 50 1010.1
20240525084002 52 289 2.0 5.0 0.00 0.00 0.00 50 1010.1
20240525083743 52 289 2.0 5.0 0.00 0.00 0.00 50 1010.1
20240525083650 52 289 2.0 5.0 0.00 0.00 0.00 49 1010.1
20240525083548 52 289 2.0 5.0 0.00 0.00 0.00 49 1010.2
20240525083444 52 289 3.0 6.0 0.00 0.00 0.00 50 1010.2
20240525083356 53 289 3.0 6.0 0.00 0.00 0.00 49 1010.2
20240525083244 53 279 3.0 6.0 0.00 0.00 0.00 49 1010.2
20240525083143 53 277 3.0 6.0 0.00 0.00 0.00 50 1010.2
20240525083042 53 292 3.0 7.0 0.00 0.00 0.00 49 1010.2
20240525082942 53 292 4.0 7.0 0.00 0.00 0.00 49 1010.2
20240525082841 53 292 4.0 7.0 0.00 0.00 0.00 49 1010.2
20240525082746 53 292 5.0 7.0 0.00 0.00 0.00 49 1010.2
20240525082536 53 285 5.0 8.0 0.00 0.00 0.00 49 1010.2
20240525082434 53 296 5.0 8.0 0.00 0.00 0.00 49 1010.2
20240525082336 53 286 5.0 8.0 0.00 0.00 0.00 48 1010.2
20240525082242 53 288 5.0 8.0 0.00 0.00 0.00 48 1010.3
20240525082236 53 295 5.0 8.0 0.00 0.00 0.00 48 1010.3
20240525082132 53 289 5.0 8.0 0.00 0.00 0.00 48 1010.2
20240525082032 53 284 5.0 8.0 0.00 0.00 0.00 48 1010.3
20240525081825 53 293 5.0 8.0 0.00 0.00 0.00 48 1010.3
20240525081742 53 290 5.0 8.0 0.00 0.00 0.00 48 1010.3
20240525081725 53 302 5.0 8.0 0.00 0.00 0.00 48 1010.3
20240525081634 53 280 5.0 8.0 0.00 0.00 0.00 48 1010.3
20240525081419 53 288 5.0 8.0 0.00 0.00 0.00 47 1010.3
20240525081319 53 276 5.0 8.0 0.00 0.00 0.00 47 1010.3
20240525081242 53 277 5.0 8.0 0.00 0.00 0.00 47 1010.3
20240525081219 53 299 5.0 8.0 0.00 0.00 0.00 47 1010.3
20240525081118 53 288 5.0 8.0 0.00 0.00 0.00 47 1010.3
20240525081019 53 273 4.0 8.0 0.00 0.00 0.00 47 1010.3
20240525080850 53 291 4.0 8.0 0.00 0.00 0.00 48 1010.4
20240525080719 53 278 4.0 8.0 0.00 0.00 0.00 49 1010.3
20240525080512 53 311 4.0 7.0 0.00 0.00 0.00 50 1010.4
20240525080406 53 271 5.0 7.0 0.00 0.00 0.00 50 1010.4
20240525080307 53 284 5.0 7.0 0.00 0.00 0.00 49 1010.4
20240525080241 53 288 5.0 7.0 0.00 0.00 0.00 49 1010.4
20240525080206 53 284 5.0 7.0 0.00 0.00 0.00 49 1010.4
20240525080107 53 292 5.0 7.0 0.00 0.00 0.00 49 1010.5
20240525080006 53 298 5.0 7.0 0.00 0.00 0.00 49 1010.4
20240525075902 53 299 5.0 7.0 0.00 0.00 0.00 49 1010.5
20240525075740 53 320 6.0 7.0 0.00 0.00 0.00 49 1010.5
20240525075700 53 311 6.0 7.0 0.00 0.00 0.00 49 1010.5
20240525075600 53 291 5.0 7.0 0.00 0.00 0.00 49 1010.7
20240525075502 53 312 5.0 7.0 0.00 0.00 0.00 49 1010.7
20240525075347 53 310 5.0 7.0 0.00 0.00 0.00 50 1010.7
20240525075155 53 296 4.0 7.0 0.00 0.00 0.00 50 1010.7
20240525075056 53 297 4.0 7.0 0.00 0.00 0.00 50 1010.7
20240525074955 53 298 4.0 7.0 0.00 0.00 0.00 50 1010.7
20240525074739 53 325 4.0 6.0 0.00 0.00 0.00 50 1010.7
20240525074648 53 325 4.0 6.0 0.00 0.00 0.00 50 1010.8
20240525074548 53 325 3.0 6.0 0.00 0.00 0.00 50 1010.7
20240525074456 53 325 4.0 6.0 0.00 0.00 0.00 50 1010.8
20240525074239 53 325 4.0 5.0 0.00 0.00 0.00 50 1010.9
20240525074146 53 325 4.0 5.0 0.00 0.00 0.00 50 1010.8
20240525074045 53 325 4.0 5.0 0.00 0.00 0.00 49 1010.9
20240525073943 53 325 4.0 5.0 0.00 0.00 0.00 49 1010.9
20240525073843 53 325 4.0 5.0 0.00 0.00 0.00 49 1010.9
20240525073741 53 325 3.0 5.0 0.00 0.00 0.00 50 1010.9
20240525073641 53 325 3.0 5.0 0.00 0.00 0.00 49 1010.9
20240525073540 53 325 3.0 5.0 0.00 0.00 0.00 49 1010.9
20240525073436 53 325 3.0 5.0 0.00 0.00 0.00 50 1010.9
20240525073343 53 325 3.0 5.0 0.00 0.00 0.00 49 1010.9
20240525073337 53 325 3.0 5.0 0.00 0.00 0.00 49 1010.9
20240525073134 53 325 4.0 6.0 0.00 0.00 0.00 48 1010.9
20240525073032 53 325 4.0 6.0 0.00 0.00 0.00 47 1010.9
20240525072931 53 325 4.0 6.0 0.00 0.00 0.00 47 1010.9
20240525072738 53 325 4.0 6.0 0.00 0.00 0.00 47 1011.0
20240525072732 53 325 4.0 6.0 0.00 0.00 0.00 47 1010.9
20240525072525 54 325 4.0 6.0 0.00 0.00 0.00 47 1011.0
20240525072424 54 321 4.0 6.0 0.00 0.00 0.00 48 1011.0
20240525072318 54 311 4.0 6.0 0.00 0.00 0.00 48 1011.0
20240525072237 54 310 4.0 6.0 0.00 0.00 0.00 48 1011.0
20240525072218 54 323 4.0 6.0 0.00 0.00 0.00 48 1011.0
20240525072119 54 294 4.0 6.0 0.00 0.00 0.00 47 1011.0
20240525072018 54 316 3.0 6.0 0.00 0.00 0.00 47 1011.0
20240525071937 54 308 4.0 5.0 0.00 0.00 0.00 46 1011.0
20240525071822 54 326 4.0 6.0 0.00 0.00 0.00 46 1011.1
20240525071511 54 325 4.0 6.0 0.00 0.00 0.00 46 1011.3
20240525071410 54 325 4.0 6.0 0.00 0.00 0.00 46 1011.3
20240525071307 54 326 4.0 6.0 0.00 0.00 0.00 46 1011.3
20240525071236 54 326 4.0 6.0 0.00 0.00 0.00 46 1011.3
20240525071206 54 325 4.0 6.0 0.00 0.00 0.00 46 1011.3
20240525071105 54 313 4.0 6.0 0.00 0.00 0.00 46 1011.3
20240525071009 54 312 4.0 6.0 0.00 0.00 0.00 46 1011.4
20240525070813 54 312 4.0 6.0 0.00 0.00 0.00 45 1011.4
20240525070806 54 284 4.0 6.0 0.00 0.00 0.00 45 1011.4
20240525070602 54 296 3.0 6.0 0.00 0.00 0.00 46 1011.5
20240525070503 53 319 3.0 6.0 0.00 0.00 0.00 46 1011.5
20240525070410 53 313 3.0 5.0 0.00 0.00 0.00 46 1011.5
20240525070236 53 338 3.0 5.0 0.00 0.00 0.00 46 1011.5
20240525070208 53 338 3.0 5.0 0.00 0.00 0.00 46 1011.5
20240525070002 53 338 2.0 5.0 0.00 0.00 0.00 47 1011.5
20240525065901 53 321 2.0 4.0 0.00 0.00 0.00 47 1011.5
20240525065843 53 321 2.0 4.0 0.00 0.00 0.00 47 1011.5
20240525065700 53 321 2.0 4.0 0.00 0.00 0.00 47 1011.5
20240525065558 53 321 2.0 4.0 0.00 0.00 0.00 46 1011.5
20240525065458 53 321 1.0 4.0 0.00 0.00 0.00 47 1011.5
20240525065358 53 5 1.0 4.0 0.00 0.00 0.00 49 1011.6
20240525065236 53 5 1.0 4.0 0.00 0.00 0.00 47 1011.6
20240525065158 53 5 1.0 4.0 0.00 0.00 0.00 47 1011.6
20240525065059 53 5 1.0 4.0 0.00 0.00 0.00 47 1011.7
20240525065003 53 5 1.0 4.0 0.00 0.00 0.00 47 1011.7
20240525064735 53 5 1.0 4.0 0.00 0.00 0.00 48 1011.9
20240525064652 53 5 1.0 4.0 0.00 0.00 0.00 48 1011.9
20240525064550 53 5 1.0 4.0 0.00 0.00 0.00 49 1011.9
20240525064450 54 5 1.0 4.0 0.00 0.00 0.00 47 1011.9
20240525064351 54 5 1.0 4.0 0.00 0.00 0.00 47 1011.9
20240525064237 54 5 1.0 4.0 0.00 0.00 0.00 46 1011.9
20240525064150 54 5 1.0 4.0 0.00 0.00 0.00 46 1011.9
20240525064048 54 5 1.0 4.0 0.00 0.00 0.00 45 1011.9
20240525063946 54 5 1.0 4.0 0.00 0.00 0.00 45 1011.9
20240525063847 54 5 1.0 4.0 0.00 0.00 0.00 46 1012.0
20240525063736 54 5 1.0 4.0 0.00 0.00 0.00 47 1011.9
20240525063644 54 5 1.0 3.0 0.00 0.00 0.00 45 1012.0
20240525063542 54 5 1.0 3.0 0.00 0.00 0.00 45 1012.0
20240525063440 54 5 1.0 4.0 0.00 0.00 0.00 45 1012.0
20240525063350 55 5 1.0 4.0 0.00 0.00 0.00 45 1012.0
20240525063240 55 5 1.0 4.0 0.00 0.00 0.00 44 1012.0
20240525063138 55 5 1.0 4.0 0.00 0.00 0.00 44 1012.1
20240525063045 55 5 1.0 4.0 0.00 0.00 0.00 44 1012.0
20240525062839 55 5 2.0 4.0 0.00 0.00 0.00 44 1012.1
20240525062736 55 5 2.0 4.0 0.00 0.00 0.00 45 1012.1
20240525062637 55 5 2.0 4.0 0.00 0.00 0.00 44 1012.1
20240525062536 55 5 1.0 4.0 0.00 0.00 0.00 44 1012.2
20240525062436 55 5 1.0 4.0 0.00 0.00 0.00 45 1012.1
20240525062348 54 5 1.0 4.0 0.00 0.00 0.00 45 1012.2
20240525062341 54 286 1.0 4.0 0.00 0.00 0.00 45 1012.2
20240525062143 54 286 1.0 4.0 0.00 0.00 0.00 44 1012.3
20240525061936 54 286 1.0 4.0 0.00 0.00 0.00 44 1012.2
20240525061848 54 286 1.0 4.0 0.00 0.00 0.00 45 1012.3
20240525061840 54 286 1.0 4.0 0.00 0.00 0.00 45 1012.3
20240525061644 54 286 1.0 4.0 0.00 0.00 0.00 45 1012.3
20240525061437 54 286 1.0 4.0 0.00 0.00 0.00 44 1012.3
20240525061337 54 286 1.0 3.0 0.00 0.00 0.00 44 1012.3
20240525061245 54 286 1.0 2.0 0.00 0.00 0.00 44 1012.4
20240525061043 54 286 1.0 2.0 0.00 0.00 0.00 44 1012.3
20240525060849 54 286 1.0 2.0 0.00 0.00 0.00 44 1012.4
20240525060743 54 286 1.0 2.0 0.00 0.00 0.00 44 1012.4
20240525060537 54 286 1.0 2.0 0.00 0.00 0.00 44 1012.4
20240525060434 54 286 1.0 2.0 0.00 0.00 0.00 44 1012.4
20240525060334 54 286 1.0 2.0 0.00 0.00 0.00 44 1012.6
20240525060234 55 286 1.0 4.0 0.00 0.00 0.00 44 1012.6
20240525060137 55 286 1.0 4.0 0.00 0.00 0.00 43 1012.6
20240525055936 55 286 1.0 4.0 0.00 0.00 0.00 43 1012.6
20240525055728 55 286 1.0 4.0 0.00 0.00 0.00 44 1012.7
20240525055627 55 286 1.0 4.0 0.00 0.00 0.00 44 1012.7
20240525055527 55 286 1.0 4.0 0.00 0.00 0.00 43 1012.7
20240525055426 55 286 1.0 4.0 0.00 0.00 0.00 43 1012.7
20240525055324 55 286 1.0 4.0 0.00 0.00 0.00 44 1012.7
20240525055227 55 286 1.0 4.0 0.00 0.00 0.00 43 1012.7
20240525055020 55 286 1.0 4.0 0.00 0.00 0.00 43 1012.7
20240525054920 55 286 1.0 4.0 0.00 0.00 0.00 43 1012.8
20240525054835 55 286 2.0 4.0 0.00 0.00 0.00 43 1012.7
20240525054720 55 286 2.0 4.0 0.00 0.00 0.00 43 1012.8
20240525054619 55 286 2.0 4.0 0.00 0.00 0.00 43 1012.8
20240525054519 55 286 1.0 4.0 0.00 0.00 0.00 42 1012.8
20240525054416 55 286 1.0 4.0 0.00 0.00 0.00 42 1012.8
20240525054325 55 286 1.0 4.0 0.00 0.00 0.00 42 1012.8
20240525054318 55 286 1.0 4.0 0.00 0.00 0.00 42 1012.8
20240525054113 55 286 1.0 4.0 0.00 0.00 0.00 43 1012.8
20240525054012 55 286 2.0 4.0 0.00 0.00 0.00 43 1012.8
20240525053912 55 286 1.0 4.0 0.00 0.00 0.00 43 1012.8
20240525053812 55 286 1.0 4.0 0.00 0.00 0.00 43 1012.8
20240525053726 55 286 1.0 4.0 0.00 0.00 0.00 43 1012.8
20240525053710 55 286 1.0 4.0 0.00 0.00 0.00 43 1012.9
20240525053615 55 286 1.0 4.0 0.00 0.00 0.00 43 1012.8
20240525053511 55 286 1.0 4.0 0.00 0.00 0.00 43 1012.9
20240525053408 55 286 1.0 4.0 0.00 0.00 0.00 43 1012.9
20240525053307 55 286 1.0 4.0 0.00 0.00 0.00 43 1012.9
20240525053206 55 286 1.0 4.0 0.00 0.00 0.00 43 1012.9
20240525053110 55 286 1.0 4.0 0.00 0.00 0.00 43 1012.9
20240525052903 55 286 2.0 5.0 0.00 0.00 0.00 43 1012.9
20240525052800 55 286 2.0 5.0 0.00 0.00 0.00 43 1012.9
20240525052727 55 286 2.0 5.0 0.00 0.00 0.00 43 1012.9
20240525052700 55 286 2.0 5.0 0.00 0.00 0.00 43 1012.9
20240525052602 55 286 3.0 6.0 0.00 0.00 0.00 43 1013.0
20240525052500 55 286 3.0 7.0 0.00 0.00 0.00 43 1012.9
20240525052409 55 286 3.0 7.0 0.00 0.00 0.00 44 1012.9
20240525052225 55 286 3.0 7.0 0.00 0.00 0.00 44 1012.9
20240525052202 55 286 4.0 7.0 0.00 0.00 0.00 44 1012.9
20240525052058 55 286 4.0 7.0 0.00 0.00 0.00 44 1012.9
20240525051958 55 257 4.0 7.0 0.00 0.00 0.00 44 1013.0
20240525051858 55 259 4.0 7.0 0.00 0.00 0.00 44 1013.0
20240525051726 55 244 4.0 7.0 0.00 0.00 0.00 44 1013.0
20240525051651 55 251 3.0 7.0 0.00 0.00 0.00 44 1013.0
20240525051551 55 248 3.0 7.0 0.00 0.00 0.00 44 1013.0
20240525051452 55 262 3.0 6.0 0.00 0.00 0.00 44 1013.0
20240525051352 55 252 3.0 5.0 0.00 0.00 0.00 44 1013.0
20240525051248 55 252 3.0 5.0 0.00 0.00 0.00 44 1013.0
20240525051043 55 252 2.0 5.0 0.00 0.00 0.00 44 1012.9
20240525050942 55 252 2.0 5.0 0.00 0.00 0.00 44 1013.0
20240525050842 55 252 2.0 5.0 0.00 0.00 0.00 44 1013.0
20240525050725 55 252 2.0 5.0 0.00 0.00 0.00 44 1013.0
20240525050642 55 252 3.0 5.0 0.00 0.00 0.00 44 1013.2
20240525050540 55 251 3.0 5.0 0.00 0.00 0.00 44 1013.2
20240525050446 55 247 2.0 5.0 0.00 0.00 0.00 43 1013.3
20240525050439 55 240 2.0 5.0 0.00 0.00 0.00 43 1013.3
20240525050130 55 263 2.0 5.0 0.00 0.00 0.00 43 1013.2
20240525050030 55 236 2.0 5.0 0.00 0.00 0.00 43 1013.3
20240525045930 55 236 1.0 4.0 0.00 0.00 0.00 43 1013.3
20240525045840 55 236 1.0 4.0 0.00 0.00 0.00 43 1013.3
20240525045728 55 236 1.0 4.0 0.00 0.00 0.00 42 1013.4
20240525045626 55 236 2.0 4.0 0.00 0.00 0.00 42 1013.4
20240525045526 55 236 2.0 4.0 0.00 0.00 0.00 42 1013.4
20240525045426 55 236 2.0 4.0 0.00 0.00 0.00 42 1013.4
20240525045327 55 236 2.0 4.0 0.00 0.00 0.00 43 1013.4
20240525045231 55 236 2.0 4.0 0.00 0.00 0.00 43 1013.5
20240525045026 55 236 2.0 4.0 0.00 0.00 0.00 42 1013.5
20240525044924 55 236 1.0 4.0 0.00 0.00 0.00 42 1013.5
20240525044841 55 236 1.0 4.0 0.00 0.00 0.00 42 1013.6
20240525044835 55 236 1.0 4.0 0.00 0.00 0.00 42 1013.6
20240525044520 55 236 1.0 4.0 0.00 0.00 0.00 42 1013.6
20240525044418 55 236 1.0 4.0 0.00 0.00 0.00 42 1013.7
20240525044327 55 101 1.0 2.0 0.00 0.00 0.00 42 1013.6
20240525044320 55 101 1.0 2.0 0.00 0.00 0.00 42 1013.7
20240525044116 55 101 1.0 2.0 0.00 0.00 0.00 41 1013.7
20240525044014 55 101 1.0 2.0 0.00 0.00 0.00 41 1013.7
20240525043912 55 101 1.0 2.0 0.00 0.00 0.00 41 1013.7
20240525043812 56 101 1.0 2.0 0.00 0.00 0.00 40 1013.7
20240525043712 56 101 1.0 2.0 0.00 0.00 0.00 40 1013.7
20240525043611 56 101 1.0 2.0 0.00 0.00 0.00 40 1013.7
20240525043512 56 101 1.0 2.0 0.00 0.00 0.00 40 1013.7
20240525043412 56 101 1.0 2.0 0.00 0.00 0.00 41 1013.7
20240525043310 56 101 1.0 2.0 0.00 0.00 0.00 41 1013.7
20240525043210 56 101 1.0 4.0 0.00 0.00 0.00 41 1013.6
20240525043109 56 101 1.0 4.0 0.00 0.00 0.00 41 1013.6
20240525043013 56 101 1.0 4.0 0.00 0.00 0.00 41 1013.6
20240525042804 56 101 2.0 5.0 0.00 0.00 0.00 41 1013.6
20240525042720 56 101 2.0 6.0 0.00 0.00 0.00 41 1013.7
20240525042715 56 101 2.0 6.0 0.00 0.00 0.00 41 1013.7
20240525042400 56 101 3.0 7.0 0.00 0.00 0.00 41 1013.7
20240525042302 56 101 3.0 7.0 0.00 0.00 0.00 41 1013.7
20240525042216 56 101 3.0 7.0 0.00 0.00 0.00 41 1013.7
20240525042201 56 101 3.0 7.0 0.00 0.00 0.00 41 1013.7
20240525042100 56 101 3.0 7.0 0.00 0.00 0.00 41 1013.7
20240525042000 56 101 3.0 7.0 0.00 0.00 0.00 41 1013.7
20240525041902 57 115 3.0 7.0 0.00 0.00 0.00 41 1013.9
20240525041716 57 98 2.0 7.0 0.00 0.00 0.00 41 1013.9
20240525041654 57 115 2.0 7.0 0.00 0.00 0.00 41 1013.9
20240525041555 57 115 2.0 6.0 0.00 0.00 0.00 40 1013.7
20240525041454 57 128 1.0 5.0 0.00 0.00 0.00 40 1013.9
20240525041348 57 119 1.0 4.0 0.00 0.00 0.00 40 1013.9
20240525041302 57 211 1.0 4.0 0.00 0.00 0.00 40 1013.7
20240525041253 57 225 1.0 4.0 0.00 0.00 0.00 40 1013.7
20240525041046 57 225 1.0 5.0 0.00 0.00 0.00 40 1013.7
20240525040950 57 225 2.0 7.0 0.00 0.00 0.00 40 1013.6
20240525040714 57 225 3.0 7.0 0.00 0.00 0.00 40 1013.6
20240525040642 57 225 3.0 7.0 0.00 0.00 0.00 40 1013.6
20240525040542 58 225 4.0 7.0 0.00 0.00 0.00 40 1013.6
20240525040440 58 225 4.0 7.0 0.00 0.00 0.00 40 1013.6
20240525040347 58 225 4.0 7.0 0.00 0.00 0.00 40 1013.6
20240525040211 58 225 4.0 7.0 0.00 0.00 0.00 40 1013.5
20240525040138 58 237 4.0 7.0 0.00 0.00 0.00 40 1013.5
20240525040038 58 242 5.0 7.0 0.00 0.00 0.00 40 1013.5
20240525035939 58 267 5.0 8.0 0.00 0.00 0.00 40 1013.5
20240525035846 58 261 5.0 8.0 0.00 0.00 0.00 40 1013.5
20240525035712 58 248 5.0 8.0 0.00 0.00 0.00 40 1013.6
20240525035647 58 270 5.0 8.0 0.00 0.00 0.00 39 1013.6
20240525035438 58 209 5.0 8.0 0.00 0.00 0.00 39 1013.6
20240525035345 58 198 5.0 8.0 0.00 0.00 0.00 39 1013.6
20240525035211 59 177 6.0 8.0 0.00 0.00 0.00 39 1013.6
20240525035139 59 182 6.0 8.0 0.00 0.00 0.00 39 1013.6
20240525035049 59 178 5.0 8.0 0.00 0.00 0.00 39 1013.6
20240525034845 59 167 5.0 7.0 0.00 0.00 0.00 38 1013.6
20240525034711 59 178 4.0 7.0 0.00 0.00 0.00 38 1013.6
20240525034632 59 174 4.0 7.0 0.00 0.00 0.00 38 1013.6
20240525034532 59 196 4.0 7.0 0.00 0.00 0.00 38 1013.5
20240525034433 59 178 4.0 7.0 0.00 0.00 0.00 38 1013.6
20240525034333 60 184 4.0 7.0 0.00 0.00 0.00 38 1013.5
20240525034232 60 191 3.0 7.0 0.00 0.00 0.00 38 1013.5
20240525034212 60 193 3.0 7.0 0.00 0.00 0.00 38 1013.5
20240525034133 60 206 3.0 6.0 0.00 0.00 0.00 38 1013.5
20240525034032 60 199 3.0 6.0 0.00 0.00 0.00 38 1013.5
20240525033932 60 215 3.0 6.0 0.00 0.00 0.00 37 1013.4
20240525033832 60 203 2.0 5.0 0.00 0.00 0.00 37 1013.5
20240525033711 60 255 3.0 7.0 0.00 0.00 0.00 36 1013.5
20240525033630 60 255 3.0 7.0 0.00 0.00 0.00 36 1013.5
20240525033530 60 267 3.0 7.0 0.00 0.00 0.00 36 1013.4
20240525033430 60 284 3.0 7.0 0.00 0.00 0.00 35 1013.4
20240525033338 60 284 3.0 7.0 0.00 0.00 0.00 35 1013.4
20240525033212 60 273 3.0 7.0 0.00 0.00 0.00 35 1013.4
20240525033130 60 319 3.0 7.0 0.00 0.00 0.00 35 1013.4
20240525033031 60 302 4.0 8.0 0.00 0.00 0.00 35 1013.4
20240525032926 60 317 4.0 8.0 0.00 0.00 0.00 35 1013.3
20240525032826 60 291 4.0 9.0 0.00 0.00 0.00 35 1013.3
20240525032726 60 292 4.0 9.0 0.00 0.00 0.00 35 1013.2
20240525032707 60 281 4.0 9.0 0.00 0.00 0.00 35 1013.2
20240525032628 60 315 4.0 9.0 0.00 0.00 0.00 35 1013.2
20240525032527 60 322 5.0 12.0 0.00 0.00 0.00 35 1013.2
20240525032427 60 306 6.0 12.0 0.00 0.00 0.00 35 1013.0
20240525032326 60 304 6.0 12.0 0.00 0.00 0.00 35 1013.0
20240525032227 60 320 7.0 12.0 0.00 0.00 0.00 35 1013.0
20240525032209 60 328 7.0 12.0 0.00 0.00 0.00 35 1013.0
20240525032126 61 336 7.0 12.0 0.00 0.00 0.00 35 1013.0
20240525032026 61 311 7.0 12.0 0.00 0.00 0.00 35 1013.0
20240525031927 61 286 8.0 12.0 0.00 0.00 0.00 35 1013.0
20240525031836 61 335 8.0 12.0 0.00 0.00 0.00 34 1012.9
20240525031708 61 329 8.0 12.0 0.00 0.00 0.00 34 1012.9
20240525031628 61 313 8.0 12.0 0.00 0.00 0.00 34 1012.9
20240525031528 61 341 8.0 12.0 0.00 0.00 0.00 34 1012.9
20240525031427 61 327 7.0 12.0 0.00 0.00 0.00 34 1012.9
20240525031328 60 314 7.0 12.0 0.00 0.00 0.00 34 1012.8
20240525031228 60 309 7.0 12.0 0.00 0.00 0.00 34 1012.8
20240525031209 61 317 7.0 12.0 0.00 0.00 0.00 34 1012.8
20240525031130 60 327 7.0 12.0 0.00 0.00 0.00 35 1012.8
20240525030923 61 313 7.0 11.0 0.00 0.00 0.00 34 1012.8
20240525030823 61 343 7.0 11.0 0.00 0.00 0.00 34 1012.8
20240525030722 61 290 7.0 11.0 0.00 0.00 0.00 34 1012.8
20240525030707 61 306 7.0 11.0 0.00 0.00 0.00 34 1012.8
20240525030622 61 329 7.0 11.0 0.00 0.00 0.00 34 1012.8
20240525030530 61 325 7.0 11.0 0.00 0.00 0.00 34 1012.7
20240525030323 61 299 7.0 11.0 0.00 0.00 0.00 34 1012.7
20240525030222 61 331 8.0 13.0 0.00 0.00 0.00 33 1012.7
20240525030207 61 299 8.0 13.0 0.00 0.00 0.00 33 1012.7
20240525030123 61 311 8.0 13.0 0.00 0.00 0.00 34 1012.7
20240525030022 61 293 8.0 13.0 0.00 0.00 0.00 33 1012.7
20240525025922 61 296 9.0 13.0 0.00 0.00 0.00 33 1012.7
20240525025822 61 290 9.0 13.0 0.00 0.00 0.00 33 1012.7
20240525025724 62 304 9.0 13.0 0.00 0.00 0.00 33 1012.6
20240525025709 62 325 9.0 13.0 0.00 0.00 0.00 33 1012.6
20240525025622 62 336 9.0 13.0 0.00 0.00 0.00 33 1012.7
20240525025523 62 322 9.0 13.0 0.00 0.00 0.00 33 1012.7
20240525025423 62 328 9.0 13.0 0.00 0.00 0.00 33 1012.6
20240525025323 62 318 9.0 13.0 0.00 0.00 0.00 32 1012.7
20240525025222 62 346 8.0 13.0 0.00 0.00 0.00 32 1012.7
20240525025208 62 297 8.0 13.0 0.00 0.00 0.00 32 1012.7
20240525025118 62 296 8.0 13.0 0.00 0.00 0.00 32 1012.6
20240525025018 62 321 8.0 13.0 0.00 0.00 0.00 32 1012.7
20240525024928 62 313 8.0 13.0 0.00 0.00 0.00 32 1012.7
20240525024921 62 325 8.0 12.0 0.00 0.00 0.00 32 1012.7
20240525024634 62 313 8.0 12.0 0.00 0.00 0.00 31 1012.7
20240525024331 63 304 8.0 14.0 0.00 0.00 0.00 31 1012.8
20240525024220 63 344 8.0 14.0 0.00 0.00 0.00 31 1012.8
20240525024203 63 328 8.0 14.0 0.00 0.00 0.00 31 1012.8
20240525024118 63 313 8.0 14.0 0.00 0.00 0.00 31 1012.8
20240525024020 63 327 8.0 14.0 0.00 0.00 0.00 30 1012.8
20240525023944 63 321 8.0 14.0 0.00 0.00 0.00 30 1012.8
20240525023937 63 325 8.0 14.0 0.00 0.00 0.00 29 1012.8
20240525023526 64 299 7.0 13.0 0.00 0.00 0.00 30 1012.9
20240525023319 64 323 7.0 11.0 0.00 0.00 0.00 29 1012.9
20240525023214 64 318 7.0 11.0 0.00 0.00 0.00 30 1012.9
20240525023205 64 298 7.0 11.0 0.00 0.00 0.00 30 1012.9
20240525023114 64 311 7.0 14.0 0.00 0.00 0.00 29 1013.0
20240525023022 64 315 7.0 14.0 0.00 0.00 0.00 29 1013.0
20240525022821 64 294 8.0 14.0 0.00 0.00 0.00 29 1013.0
20240525022704 64 314 8.0 14.0 0.00 0.00 0.00 28 1013.0
20240525022615 64 321 8.0 14.0 0.00 0.00 0.00 28 1012.9
20240525022514 64 298 8.0 14.0 0.00 0.00 0.00 28 1012.9
20240525022414 64 318 8.0 14.0 0.00 0.00 0.00 28 1012.9
20240525022315 64 300 9.0 14.0 0.00 0.00 0.00 28 1013.0
20240525022248 64 286 8.0 14.0 0.00 0.00 0.00 28 1013.0
20240525022240 64 287 8.0 14.0 0.00 0.00 0.00 28 1013.0
20240525021925 64 309 8.0 13.0 0.00 0.00 0.00 28 1013.0
20240525021812 64 291 8.0 13.0 0.00 0.00 0.00 27 1013.2
20240525021614 64 270 8.0 18.0 0.00 0.00 0.00 27 1013.0
20240525021514 64 271 9.0 18.0 0.00 0.00 0.00 27 1013.0
20240525021418 64 286 9.0 18.0 0.00 0.00 0.00 28 1013.2
20240525021211 64 262 9.0 18.0 0.00 0.00 0.00 28 1013.0
20240525021203 64 265 9.0 18.0 0.00 0.00 0.00 28 1013.0
20240525021110 64 281 9.0 18.0 0.00 0.00 0.00 28 1013.0
20240525021011 64 267 9.0 18.0 0.00 0.00 0.00 28 1013.0
20240525020911 64 290 9.0 18.0 0.00 0.00 0.00 29 1013.0
20240525020820 64 279 9.0 18.0 0.00 0.00 0.00 29 1013.0
20240525020812 64 225 9.0 18.0 0.00 0.00 0.00 28 1013.0
20240525020618 65 269 9.0 16.0 0.00 0.00 0.00 28 1013.0
20240525020430 65 257 10.0 16.0 0.00 0.00 0.00 28 1013.0
20240525020210 65 256 11.0 21.0 0.00 0.00 0.00 28 1013.0
20240525020204 65 225 11.0 21.0 0.00 0.00 0.00 28 1013.0
20240525020110 65 240 11.0 21.0 0.00 0.00 0.00 28 1012.9
20240525020010 65 225 11.0 21.0 0.00 0.00 0.00 29 1012.9
20240525015910 65 250 11.0 21.0 0.00 0.00 0.00 29 1012.9
20240525015810 65 246 11.0 21.0 0.00 0.00 0.00 29 1012.9
20240525015735 65 268 12.0 21.0 0.00 0.00 0.00 28 1012.9
20240525015714 65 240 12.0 21.0 0.00 0.00 0.00 28 1012.9
20240525015510 65 246 12.0 21.0 0.00 0.00 0.00 28 1012.9
20240525015406 65 260 12.0 21.0 0.00 0.00 0.00 27 1012.9
20240525015307 66 237 12.0 21.0 0.00 0.00 0.00 27 1012.9
20240525015206 66 260 12.0 20.0 0.00 0.00 0.00 27 1012.8
20240525015159 66 257 12.0 20.0 0.00 0.00 0.00 27 1012.8
20240525015106 66 236 12.0 20.0 0.00 0.00 0.00 27 1012.8
20240525015007 66 285 12.0 23.0 0.00 0.00 0.00 27 1012.8
20240525014906 66 257 13.0 23.0 0.00 0.00 0.00 27 1012.8
20240525014805 66 264 13.0 23.0 0.00 0.00 0.00 27 1012.7
20240525014717 66 240 13.0 23.0 0.00 0.00 0.00 27 1012.7
20240525014710 66 247 13.0 23.0 0.00 0.00 0.00 27 1012.7
20240525014513 66 246 12.0 23.0 0.00 0.00 0.00 26 1012.7
20240525014315 67 229 11.0 23.0 0.00 0.00 0.00 26 1012.7
20240525014307 67 214 10.0 23.0 0.00 0.00 0.00 26 1012.7
20240525014113 67 243 9.0 23.0 0.00 0.00 0.00 26 1012.6
20240525013906 67 243 8.0 19.0 0.00 0.00 0.00 26 1012.7
20240525013826 67 243 8.0 16.0 0.00 0.00 0.00 26 1012.7
20240525013712 67 232 7.0 16.0 0.00 0.00 0.00 26 1012.7
20240525013502 68 244 7.0 14.0 0.00 0.00 0.00 26 1012.6
20240525013402 68 250 7.0 14.0 0.00 0.00 0.00 26 1012.6
20240525013303 68 276 7.0 14.0 0.00 0.00 0.00 26 1012.7
20240525013216 68 241 7.0 14.0 0.00 0.00 0.00 26 1012.6
20240525012902 69 223 8.0 15.0 0.00 0.00 0.00 25 1012.7
20240525012802 69 225 8.0 15.0 0.00 0.00 0.00 25 1012.6
20240525012710 69 212 8.0 15.0 0.00 0.00 0.00 24 1012.7
20240525012502 69 265 8.0 15.0 0.00 0.00 0.00 25 1012.6
20240525012410 69 205 8.0 15.0 0.00 0.00 0.00 24 1012.6
20240525012218 69 220 9.0 16.0 0.00 0.00 0.00 23 1012.6
20240525011901 70 267 7.0 16.0 0.00 0.00 0.00 24 1012.6
20240525011813 70 284 7.0 16.0 0.00 0.00 0.00 24 1012.6
20240525011702 70 263 7.0 16.0 0.00 0.00 0.00 23 1012.6
20240525011556 70 226 6.0 16.0 0.00 0.00 0.00 24 1012.6
20240525011456 70 224 5.0 16.0 0.00 0.00 0.00 25 1012.6
20240525011357 70 217 4.0 16.0 0.00 0.00 0.00 24 1012.4
20240525011256 70 243 3.0 16.0 0.00 0.00 0.00 25 1012.6
20240525011155 70 229 3.0 11.0 0.00 0.00 0.00 24 1012.6
20240525011059 70 266 2.0 11.0 0.00 0.00 0.00 25 1012.4
20240525010852 70 245 2.0 8.0 0.00 0.00 0.00 31 1012.6
20240525010752 71 238 3.0 8.0 0.00 0.00 0.00 31 1012.6
20240525010649 71 181 3.0 8.0 0.00 0.00 0.00 31 1012.6
20240525010548 71 117 3.0 8.0 0.00 0.00 0.00 30 1012.6
20240525010448 71 165 3.0 8.0 0.00 0.00 0.00 31 1012.6
20240525010348 71 165 4.0 8.0 0.00 0.00 0.00 31 1012.6
20240525010246 71 157 5.0 11.0 0.00 0.00 0.00 30 1012.6
20240525010144 71 184 5.0 11.0 0.00 0.00 0.00 30 1012.6
20240525010040 71 184 5.0 11.0 0.00 0.00 0.00 29 1012.4
20240525005941 72 198 6.0 11.0 0.00 0.00 0.00 30 1012.4
20240525005840 72 194 6.0 11.0 0.00 0.00 0.00 29 1012.6
20240525005748 72 171 6.0 11.0 0.00 0.00 0.00 29 1012.4
20240525005637 72 153 6.0 11.0 0.00 0.00 0.00 28 1012.4
20240525005544 72 173 6.0 11.0 0.00 0.00 0.00 28 1012.4
20240525005438 73 205 6.0 11.0 0.00 0.00 0.00 29 1012.3
20240525005247 73 159 5.0 11.0 0.00 0.00 0.00 28 1012.3
20240525005134 74 155 5.0 9.0 0.00 0.00 0.00 29 1012.3
20240525004927 73 165 5.0 8.0 0.00 0.00 0.00 30 1012.2
20240525004826 73 153 5.0 10.0 0.00 0.00 0.00 30 1012.3
20240525004749 73 172 6.0 11.0 0.00 0.00 0.00 31 1012.3
20240525004741 73 132 6.0 11.0 0.00 0.00 0.00 30 1012.3
20240525004321 73 153 7.0 11.0 0.00 0.00 0.00 30 1012.3
20240525004231 73 140 7.0 11.0 0.00 0.00 0.00 29 1012.3
20240525004224 72 155 7.0 11.0 0.00 0.00 0.00 28 1012.3
20240525004022 73 215 7.0 11.0 0.00 0.00 0.00 29 1012.3
20240525003814 73 165 7.0 13.0 0.00 0.00 0.00 29 1012.3
20240525003715 73 169 7.0 13.0 0.00 0.00 0.00 30 1012.3
20240525003615 73 153 7.0 13.0 0.00 0.00 0.00 30 1012.3
20240525003514 73 177 7.0 13.0 0.00 0.00 0.00 29 1012.3
20240525003413 73 140 8.0 13.0 0.00 0.00 0.00 29 1012.3
20240525003314 73 138 8.0 13.0 0.00 0.00 0.00 29 1012.3
20240525003228 73 150 8.0 13.0 0.00 0.00 0.00 30 1012.3
20240525003220 73 176 8.0 13.0 0.00 0.00 0.00 30 1012.3
20240525003014 73 157 8.0 13.0 0.00 0.00 0.00 30 1012.3
20240525002915 73 169 8.0 12.0 0.00 0.00 0.00 31 1012.3
20240525002812 73 143 8.0 12.0 0.00 0.00 0.00 30 1012.3
20240525002723 73 173 7.0 12.0 0.00 0.00 0.00 30 1012.3
20240525002716 73 130 7.0 12.0 0.00 0.00 0.00 30 1012.3
20240525002512 73 180 7.0 12.0 0.00 0.00 0.00 29 1012.3
20240525002417 73 148 7.0 14.0 0.00 0.00 0.00 29 1012.3
20240525002212 73 155 7.0 14.0 0.00 0.00 0.00 30 1012.3
20240525002115 73 173 7.0 14.0 0.00 0.00 0.00 30 1012.2
20240525002110 73 167 7.0 14.0 0.00 0.00 0.00 30 1012.2
20240525002016 73 177 7.0 14.0 0.00 0.00 0.00 29 1012.2
20240525001806 73 171 7.0 14.0 0.00 0.00 0.00 29 1012.3
20240525001706 73 196 7.0 14.0 0.00 0.00 0.00 29 1012.3
20240525001616 73 180 7.0 14.0 0.00 0.00 0.00 28 1012.3
20240525001606 73 161 7.0 14.0 0.00 0.00 0.00 28 1012.3
20240525001512 73 208 7.0 14.0 0.00 0.00 0.00 29 1012.3
20240525001300 74 185 7.0 12.0 0.00 0.00 0.00 28 1012.3
20240525001159 74 174 7.0 12.0 0.00 0.00 0.00 29 1012.2
20240525001113 74 173 8.0 13.0 0.00 0.00 0.00 28 1012.3
20240525001105 74 159 8.0 14.0 0.00 0.00 0.00 28 1012.3
20240525000859 74 188 8.0 16.0 0.00 0.00 0.00 30 1012.3
20240525000653 74 211 8.0 16.0 0.00 0.00 0.00 30 1012.3
20240525000614 74 182 8.0 16.0 0.00 0.00 0.00 32 1012.4
20240525000552 74 175 8.0 16.0 0.00 0.00 0.00 32 1012.4
20240525000453 74 190 8.0 16.0 0.00 0.00 0.00 30 1012.4
20240525000349 74 171 8.0 16.0 0.00 0.00 0.00 29 1012.4
20240525000325 74 181 7.0 16.0 0.00 0.00 0.00 28 1012.4
20240525000044 74 194 7.0 14.0 0.00 0.00 0.00 28 1012.4
20240524235943 74 167 6.0 14.0 0.00 0.00 0.00 28 1012.4
20240524235932 74 163 6.0 14.0 0.00 0.00 0.00 27 1012.4
20240524235539 74 152 5.0 9.0 0.00 0.00 0.00 28 1012.4
20240524235438 74 167 5.0 9.0 0.00 0.00 0.00 27 1012.6
20240524235338 74 171 6.0 11.0 0.00 0.00 0.00 29 1012.6
20240524235234 74 149 6.0 11.0 0.00 0.00 0.00 28 1012.6
20240524235144 73 150 6.0 11.0 0.00 0.00 0.00 28 1012.6
20240524235137 73 116 7.0 11.0 0.00 0.00 0.00 28 1012.6
20240524234933 73 169 7.0 13.0 0.00 0.00 0.00 28 1012.7
20240524234838 73 151 7.0 13.0 0.00 0.00 0.00 28 1012.6
20240524234647 73 182 7.0 13.0 0.00 0.00 0.00 28 1012.6
20240524234640 73 180 7.0 13.0 0.00 0.00 0.00 28 1012.6
20240524234325 73 164 6.0 13.0 0.00 0.00 0.00 27 1012.4